GFSFLT1_500_spd_000.txt.gz
Wind_Speed
14 17 20 19 19 19 17 17 15 17 18 17 16 16 17 16 14 13 12 12 13 14 14 15 17 18 20 21 23 24 25 25 25
17 17 19 20 21 19 18 19 19 17 17 15 16 16 16 14 14 14 13 13 15 16 16 18 19 22 24 26 26 26 27 27 27
17 18 20 20 19 18 19 21 21 20 21 21 18 18 18 17 17 17 17 18 18 19 20 21 24 26 26 28 29 30 29 29 30
19 19 20 20 19 19 20 23 23 25 26 27 26 24 23 23 23 22 22 23 22 23 23 24 25 27 28 29 30 30 31 30 32
20 21 23 24 24 24 25 27 27 28 30 32 33 32 31 30 30 30 29 29 28 28 28 29 31 32 33 34 32 32 33 34 34
25 26 29 31 32 32 30 31 32 31 33 35 38 39 39 38 38 37 36 35 35 35 35 35 36 37 38 39 37 38 37 37 37
28 30 32 33 34 35 35 36 37 38 41 41 43 43 43 44 43 43 42 40 40 40 41 41 41 42 43 43 43 42 40 40 40
32 34 35 37 38 39 41 43 44 46 46 46 47 46 46 46 47 48 47 46 46 46 46 46 47 47 47 48 47 46 44 44 43
35 36 38 41 44 46 48 48 48 49 49 50 48 46 46 45 46 48 50 51 52 52 51 51 51 51 51 51 51 49 47 48 47
38 41 45 47 46 45 44 43 44 44 45 46 46 47 46 46 46 46 48 50 52 54 54 54 54 54 54 54 53 52 51 50 50
45 47 45 44 42 40 40 40 41 42 43 44 46 46 47 48 49 49 49 50 51 53 54 55 56 56 55 55 54 54 53 52 52
45 43 41 41 40 39 38 39 40 41 43 45 46 48 48 49 49 50 50 51 53 54 54 55 56 56 56 55 55 54 54 55 54
35 35 36 37 38 37 38 39 38 38 40 42 43 44 46 47 48 49 50 51 52 53 55 56 56 57 57 57 57 56 56 55 55
32 32 32 33 33 35 37 38 41 42 44 46 47 48 50 52 53 54 56 57 57 58 58 60 61 60 61 60 60 58 58 57 56
30 32 34 36 37 39 41 42 45 46 48 50 49 50 51 52 54 57 59 60 62 63 64 64 64 64 63 62 61 60 60 59 58
35 36 38 40 41 44 46 48 49 51 55 56 56 57 57 58 58 59 60 63 64 65 65 66 66 65 64 64 63 61 59 58 59
39 41 43 46 48 50 52 54 54 55 55 58 60 60 57 57 58 59 61 61 62 62 61 61 63 64 65 65 64 64 61 59 59
44 47 49 50 50 50 52 55 57 57 58 61 63 64 65 66 65 66 65 65 64 65 66 65 64 63 62 62 63 62 61 61 61
48 48 47 49 53 55 57 58 60 60 61 62 66 70 74 77 76 74 74 74 71 68 65 65 63 63 62 61 61 61 63 62 62
47 50 53 56 58 60 61 62 64 67 70 74 77 79 81 83 85 81 80 81 81 80 76 68 66 63 63 64 64 62 69 66 65

GFSFLT1_500_spd_003.txt.gz
Wind_Speed
18 18 17 18 19 20 20 20 19 19 19 18 18 18 16 14 12 12 12 12 12 12 12 13 15 16 18 19 21 23 25 26 27
21 21 20 19 19 21 20 19 20 20 21 21 20 21 21 18 16 15 16 17 18 18 18 17 18 19 20 21 22 24 26 27 27
23 21 20 20 19 20 20 20 21 23 22 23 25 26 27 26 24 21 21 22 23 23 23 23 23 23 24 25 26 27 29 30 29
23 20 21 20 21 22 23 23 24 26 27 28 29 30 31 33 33 33 31 30 30 30 29 29 29 29 30 31 32 33 33 33 32
23 20 21 22 24 27 29 29 30 32 32 33 33 34 34 36 39 41 39 39 40 39 38 38 37 37 37 37 37 37 38 37 36
25 26 26 28 29 31 32 33 34 33 34 37 38 40 41 41 43 44 44 44 44 43 43 43 42 42 43 43 43 43 43 42 40
28 28 29 31 33 34 35 37 39 41 42 43 46 47 45 45 46 46 45 44 44 45 46 47 47 47 48 48 47 47 47 46 45
30 31 32 34 36 38 39 42 46 47 48 47 49 48 47 47 47 45 45 44 43 43 44 47 48 49 50 50 51 50 50 49 48
31 31 34 36 39 42 45 47 44 41 40 41 43 43 44 44 45 45 46 45 44 44 45 46 47 49 50 52 52 52 51 51 50
31 33 37 41 44 46 44 43 40 40 40 41 42 43 43 44 44 45 46 47 47 47 48 49 50 50 51 52 53 53 53 52 52
35 38 41 43 43 41 39 38 37 37 38 39 40 41 40 40 41 42 42 45 47 48 49 50 51 52 53 53 54 54 54 53 53
35 36 36 36 35 34 35 35 35 34 36 37 40 41 42 43 44 45 46 47 49 51 51 52 53 54 56 56 55 54 54 55 55
34 34 34 33 33 34 35 37 38 38 40 42 44 45 47 48 49 50 52 52 53 54 55 57 57 57 58 58 59 59 59 59 58
32 31 32 33 35 38 39 41 42 43 45 47 47 49 51 52 54 54 55 56 56 56 57 58 59 60 61 62 62 61 61 61 60
32 33 35 37 39 41 43 44 47 49 50 51 51 51 50 50 51 52 53 54 55 57 58 57 58 60 60 61 62 62 62 62 62
36 38 40 42 44 46 48 50 49 49 52 54 54 54 54 55 56 54 54 55 57 59 61 62 62 62 62 63 63 64 64 63 61
41 43 45 47 49 50 49 50 51 54 58 60 62 62 59 58 58 60 62 64 65 66 67 69 69 69 68 67 66 65 66 65 64
45 47 47 47 48 50 53 56 59 61 62 66 70 71 70 70 69 70 71 72 72 72 72 73 72 71 74 73 73 71 69 69 68
45 45 48 50 53 56 59 62 65 68 72 73 74 76 79 82 80 80 80 81 81 81 80 80 79 77 76 75 76 75 73 67 65
46 49 51 54 59 64 68 70 73 75 77 80 82 83 84 85 88 87 88 88 90 90 92 93 92 89 82 75 73 74 73 72 73

GFSFLT1_500_spd_006.txt.gz
Wind_Speed
21 20 21 21 22 23 21 20 20 21 20 22 23 23 22 21 20 20 17 17 17 18 19 18 18 18 18 18 19 19 21 22 24
24 24 24 24 21 21 21 20 18 20 21 22 23 24 26 26 26 24 24 24 24 24 25 25 25 25 25 24 24 25 26 27 29
24 26 25 24 21 20 20 20 20 21 23 25 27 27 30 30 30 29 29 30 31 32 31 31 31 31 31 31 31 31 32 33 33
22 24 24 24 23 21 22 23 25 27 29 30 31 32 34 35 36 34 34 35 36 37 37 38 39 39 39 39 39 39 39 38 39
24 23 23 24 25 25 26 29 31 32 33 33 34 35 38 39 41 40 42 43 41 41 42 42 42 43 42 42 43 43 43 43 44
27 26 26 27 28 29 31 33 35 36 37 38 40 41 43 44 45 47 46 47 46 44 43 43 43 43 44 45 45 46 46 46 46
28 28 28 29 30 33 34 36 38 40 42 44 47 49 49 49 49 48 49 49 48 45 44 44 43 43 43 45 47 48 49 49 49
27 28 29 30 32 36 38 40 41 44 47 49 47 44 42 43 44 45 46 46 46 46 46 46 45 45 45 46 47 49 50 51 51
25 27 30 32 34 37 40 42 45 47 45 44 42 40 40 41 43 44 46 47 47 47 47 48 48 49 50 50 51 52 52 52 52
28 31 33 35 37 40 42 42 40 39 38 38 37 37 38 39 41 41 42 43 45 45 45 45 46 47 48 49 50 52 53 54 53
32 34 36 36 36 36 36 36 35 36 36 36 38 38 39 40 42 43 44 46 48 50 50 51 52 52 53 54 54 55 56 55 55
37 37 36 36 36 36 35 35 35 35 37 38 40 42 44 46 47 49 49 50 51 53 55 56 56 56 57 57 58 59 59 59 60
39 37 36 36 36 36 36 37 39 40 41 42 44 46 47 49 51 52 54 54 54 54 54 56 58 57 56 56 57 58 59 60 61
37 35 35 35 36 38 39 41 43 45 46 48 49 49 49 49 51 54 56 57 58 59 59 58 59 60 60 59 59 58 59 60 61
36 36 37 38 40 42 43 45 48 49 50 49 49 50 51 54 56 57 59 61 62 64 64 64 64 64 66 68 69 68 67 66 64
38 40 41 42 43 45 46 46 46 47 50 52 53 55 58 60 63 64 66 67 68 70 71 73 73 74 75 74 74 74 74 73 72
41 41 42 44 45 44 46 48 49 51 54 57 60 62 62 64 68 69 70 71 72 73 75 76 78 79 80 81 80 79 78 77 75
41 42 42 43 44 45 47 48 51 55 58 62 67 70 72 72 72 72 74 75 77 79 81 82 84 85 87 87 86 86 85 82 82
41 41 43 45 47 48 51 53 58 63 67 70 71 73 78 83 83 82 83 84 85 86 88 89 91 93 94 93 90 90 88 87 88
42 44 46 49 51 54 58 63 68 72 73 75 79 81 81 83 87 90 92 93 95 94 96 97 98 99 100 100 97 93 89 89 87

GFSFLT1_500_spd_009.txt.gz
Wind_Speed
22 22 22 22 22 22 22 23 23 22 21 20 19 21 20 21 23 24 23 22 21 22 24 25 24 23 23 24 25 26 25 25 24
23 24 24 25 25 24 23 22 22 21 21 21 21 23 24 23 26 27 28 28 28 28 28 29 30 30 30 30 31 32 32 31 31
20 21 23 24 25 25 23 23 22 21 22 23 24 26 28 31 31 33 33 33 32 32 32 33 34 35 36 37 38 38 38 38 38
24 23 23 22 23 23 23 24 25 26 27 28 30 31 32 33 35 36 37 38 37 37 39 40 40 39 40 41 42 42 42 42 42
26 27 26 25 25 26 26 28 29 31 32 31 33 35 37 38 39 40 43 43 43 43 43 44 45 45 44 43 44 45 46 46 46
26 26 26 27 28 28 29 31 33 35 36 38 39 41 42 44 46 48 50 50 51 50 49 48 48 48 46 45 46 46 47 49 50
23 24 26 27 29 31 33 34 36 37 39 41 44 44 46 49 47 45 44 44 47 47 48 47 47 47 48 48 49 48 48 48 49
20 22 25 28 30 32 34 36 38 40 42 44 47 47 46 43 41 40 40 41 42 44 46 46 47 47 48 49 50 50 51 51 51
24 25 27 29 31 34 36 38 41 44 45 45 43 42 39 37 37 37 37 38 40 42 42 43 44 45 45 46 47 48 49 50 51
28 30 32 33 35 37 39 40 41 40 39 38 37 37 37 37 37 37 38 40 42 44 46 47 48 50 51 51 52 52 53 54 54
33 36 37 38 38 38 38 37 38 37 36 36 36 38 39 40 41 41 42 43 45 47 49 51 52 53 54 55 56 56 56 56 56
36 39 40 39 38 37 38 36 36 35 36 38 39 41 41 43 45 46 47 47 46 46 48 52 54 55 56 57 58 58 58 57 57
39 39 37 36 35 35 36 37 38 39 40 41 42 43 43 43 43 45 47 48 50 52 53 55 58 61 62 62 62 62 62 61 60
36 34 33 34 35 36 37 38 39 40 42 42 42 42 43 46 47 51 52 54 57 59 61 64 65 66 67 69 69 69 68 69 69
34 34 35 36 36 37 38 40 41 43 43 43 44 44 46 48 50 52 54 57 60 63 66 68 69 70 70 72 74 76 77 76 75
35 36 36 37 38 39 40 40 41 43 45 47 48 50 51 54 57 59 61 63 65 65 68 71 74 75 75 78 79 79 81 82 82
36 37 37 39 40 41 42 44 46 48 49 52 54 56 55 59 62 66 68 70 71 72 74 76 79 82 84 85 87 88 89 89 89
38 39 40 40 42 45 47 48 49 51 54 59 64 66 68 70 71 72 74 75 78 79 81 81 83 85 87 88 91 93 95 96 97
40 40 42 44 45 46 48 52 55 59 63 65 66 69 74 79 80 80 80 81 82 83 83 85 87 89 91 93 95 97 98 99 99
42 42 44 45 48 51 54 57 61 64 66 68 70 73 75 77 81 84 86 86 88 87 89 92 95 97 98 98 99 100 100 99 99

GFSFLT1_500_spd_012.txt.gz
Wind_Speed
17 20 21 22 22 23 23 22 23 23 23 24 23 22 20 18 17 20 23 23 24 24 24 25 26 26 25 26 26 25 26 27 27
16 19 21 23 24 25 25 24 23 23 22 22 22 21 21 21 21 24 27 29 30 31 30 30 30 29 30 30 32 33 33 34 34
19 20 20 20 20 21 22 22 22 22 22 23 24 25 25 27 28 29 30 32 35 34 34 33 33 34 36 37 37 37 39 40 41
22 24 23 22 22 22 23 23 24 25 26 28 28 31 32 33 32 34 35 35 36 41 41 41 39 40 42 44 44 44 43 43 44
22 24 25 25 25 25 27 27 29 30 31 31 33 35 36 36 37 39 40 41 42 46 48 46 46 46 47 47 48 48 47 47 47
21 22 24 26 27 28 28 30 30 32 33 34 36 37 39 39 41 42 44 47 46 44 42 42 43 44 45 45 45 46 46 47 48
18 20 21 23 25 26 27 28 30 32 34 36 38 40 41 43 45 46 46 42 41 38 38 39 39 40 40 41 42 43 44 44 46
20 20 22 24 26 27 29 31 33 34 36 38 41 42 44 44 39 37 36 36 36 36 35 35 36 37 38 39 39 40 41 42 42
24 25 26 28 29 31 33 34 36 37 38 40 41 41 39 36 35 34 34 36 36 38 38 39 39 40 42 43 44 44 45 46 48
28 29 29 32 34 36 37 37 38 39 39 39 39 36 35 34 34 35 36 37 38 39 41 42 43 44 44 45 46 47 48 49 50
32 32 34 36 37 37 37 37 36 37 37 35 34 33 34 35 37 37 39 39 39 39 40 42 45 47 48 49 49 50 51 53 54
33 36 38 39 39 35 34 32 32 32 32 32 32 33 35 35 38 38 40 40 40 42 44 46 47 50 53 55 56 57 59 60 60
35 38 40 37 34 32 32 31 31 32 33 33 34 33 35 37 39 41 41 43 44 46 47 48 51 53 55 57 60 62 63 64 65
39 41 38 34 33 33 33 33 32 33 34 34 35 37 39 41 42 43 45 48 50 52 53 56 58 59 60 63 65 67 68 68 68
40 40 38 38 36 34 34 34 36 36 37 38 39 42 44 45 46 49 51 53 55 57 61 64 64 66 68 68 68 71 74 77 76
40 39 37 36 36 36 37 37 38 41 43 44 43 45 47 50 54 57 61 61 63 65 68 70 72 73 73 75 77 77 78 80 81
40 38 36 37 39 40 40 41 42 44 46 49 52 54 53 57 60 62 63 64 65 67 69 71 73 75 77 80 81 82 82 83 83
38 38 39 40 41 42 43 44 47 49 52 57 63 66 66 67 62 62 65 67 69 71 73 76 78 80 82 83 83 84 87 89 90
39 39 40 41 42 43 46 50 52 55 59 62 64 67 71 73 71 69 71 72 74 76 78 81 83 86 87 87 89 92 94 95 94
40 40 41 43 46 49 51 54 58 61 63 65 67 68 70 73 77 75 77 79 81 82 85 88 90 92 93 95 98 100 101 102 102

GFSFLT1_500_spd_015.txt.gz
Wind_Speed
12 15 18 19 20 21 22 23 24 24 23 24 25 25 26 26 24 22 23 24 21 23 27 26 27 26 26 26 25 25 26 27 28
16 16 16 17 20 21 23 24 25 25 25 25 25 26 25 23 24 25 26 27 28 28 31 33 32 32 31 30 30 31 32 32 34
20 21 21 21 21 21 22 22 23 24 26 26 26 26 27 26 28 29 30 31 32 32 33 35 36 35 37 37 37 37 39 40 40
19 21 22 24 26 26 26 26 26 26 27 27 29 30 30 31 32 32 33 35 35 36 37 38 40 42 43 43 42 43 43 43 43
17 20 21 23 25 27 27 27 27 28 29 30 31 32 33 34 35 36 39 40 41 41 43 43 46 45 44 45 46 45 45 45 45
17 17 18 19 20 23 24 26 27 29 30 32 33 34 35 36 38 40 42 44 45 45 45 42 40 38 38 39 41 42 42 42 42
18 19 19 20 21 22 23 25 27 29 31 33 34 36 37 38 40 42 44 44 40 37 36 34 34 33 34 33 35 36 36 37 37
22 22 22 24 25 26 27 28 29 31 32 34 36 38 38 40 39 39 39 37 36 34 33 33 33 32 34 36 36 36 37 38 39
29 27 26 28 29 30 32 34 35 37 38 38 38 38 38 37 36 35 35 35 35 35 35 35 36 36 38 37 39 39 39 40 40
34 33 32 31 31 33 35 37 37 37 37 38 36 35 34 34 33 35 35 35 35 36 38 39 40 40 42 42 41 42 43 44 45
37 35 33 33 35 37 39 40 36 34 32 31 31 31 32 34 35 36 36 37 39 39 39 41 42 43 45 47 48 48 49 50 51
35 32 32 35 37 40 40 37 35 31 30 30 31 31 33 35 37 38 39 41 41 42 43 44 46 48 48 50 51 53 54 54 55
28 30 33 37 39 39 38 36 35 34 33 32 33 35 35 36 38 40 41 43 44 45 48 50 52 53 55 55 56 57 60 62 62
32 34 37 38 39 38 36 35 34 34 35 35 36 37 39 40 41 43 45 47 49 52 54 56 58 60 61 63 65 66 66 67 69
36 37 39 41 39 36 35 35 36 37 37 37 38 40 42 43 45 47 50 53 57 59 62 63 64 65 66 68 69 71 71 72 73
38 39 41 39 38 37 37 37 38 39 39 40 41 44 47 49 53 56 59 61 63 65 67 67 69 70 71 72 74 75 77 78 79
40 41 40 39 39 40 40 40 40 42 44 46 48 49 51 55 58 60 62 64 65 66 68 70 72 75 76 77 78 79 82 83 83
41 41 42 40 40 39 40 42 44 46 50 54 57 59 60 60 60 61 64 66 68 70 72 74 76 78 80 82 84 85 87 89 89
42 41 40 40 40 42 44 47 50 52 54 57 61 66 70 71 70 67 67 70 71 74 75 77 80 83 85 87 89 90 92 94 95
41 40 40 41 43 45 48 50 53 55 58 61 63 66 68 72 75 77 77 77 76 77 79 82 85 88 91 93 95 97 98 100 101

GFSFLT1_500_spd_018.txt.gz
Wind_Speed
16 14 16 19 23 24 25 26 26 27 27 28 28 28 28 31 30 30 28 29 28 27 29 28 28 28 29 29 28 27 27 27 27
19 19 19 19 20 20 22 24 25 27 29 31 31 30 29 30 30 29 28 30 31 31 32 34 34 33 34 34 33 33 33 32 33
19 21 22 23 24 24 25 25 26 26 27 27 29 29 30 30 31 31 31 32 34 35 36 35 37 38 37 39 38 38 38 38 40
18 20 21 23 24 26 27 28 29 29 30 29 30 30 32 33 34 35 36 36 38 39 39 39 40 42 43 43 44 45 46 46 45
15 16 17 19 21 23 24 26 28 30 31 32 33 34 35 35 36 37 39 40 41 41 42 42 44 46 47 47 48 47 47 47 47
15 16 17 18 19 20 21 22 24 26 28 30 31 33 35 36 37 39 40 41 42 43 44 45 46 43 41 40 39 39 40 40 42
19 20 20 22 22 24 24 25 26 28 29 31 32 33 34 37 38 40 42 43 42 42 41 40 37 37 35 34 34 34 35 35 38
30 28 27 27 27 28 29 30 31 33 35 37 39 39 40 39 40 41 40 40 39 39 37 36 35 36 36 35 36 36 36 37 38
31 32 32 31 32 32 32 33 35 37 38 39 40 40 40 39 39 39 37 36 36 37 37 39 39 39 40 40 40 40 42 41 42
34 35 37 35 34 33 32 35 38 39 39 38 36 35 36 35 34 34 35 36 37 38 39 41 43 43 44 44 44 44 45 45 46
33 33 34 34 34 33 34 37 39 38 36 36 35 35 36 37 38 38 38 39 40 41 42 42 45 46 47 47 49 49 50 50 51
29 28 26 26 31 34 36 38 39 38 36 34 35 36 36 37 39 41 41 42 43 44 46 47 47 49 50 51 52 54 55 56 57
25 24 26 29 33 35 37 38 38 37 35 35 36 37 38 39 41 42 44 45 46 47 49 50 51 53 55 57 58 61 62 63 64
26 28 32 34 36 38 40 39 39 38 38 38 39 40 40 41 43 44 46 48 50 52 55 57 59 61 63 65 67 68 69 69 70
30 33 37 37 38 39 40 43 42 40 39 39 39 40 41 43 45 48 50 52 56 59 61 63 65 66 68 69 70 71 71 72 73
35 38 39 40 39 40 41 42 43 42 41 40 41 43 46 48 51 53 56 59 62 64 66 68 69 70 71 72 73 75 76 77 78
38 40 41 41 41 41 41 41 41 42 43 44 45 46 49 52 55 58 60 63 65 67 69 70 72 73 73 74 75 77 78 79 80
39 40 41 42 41 40 40 41 42 44 47 49 53 54 54 55 56 59 62 65 66 68 69 71 73 75 76 78 79 79 81 82 84
40 41 42 41 40 40 43 44 46 47 50 54 57 62 65 67 66 65 65 66 68 69 69 71 73 75 77 79 81 83 85 87 89
41 41 40 40 42 43 45 48 50 52 56 58 62 65 70 73 76 76 74 69 65 67 69 73 76 81 84 86 89 93 95 97 100

GFSFLT1_500_spd_021.txt.gz
Wind_Speed
16 17 17 17 18 20 23 25 27 28 28 30 30 32 33 33 33 33 33 33 32 32 34 32 30 30 31 30 31 32 31 31 30
17 18 19 21 22 23 23 23 23 24 26 27 29 31 32 33 33 33 32 32 33 32 33 35 36 36 35 35 35 37 36 35 35
18 19 19 21 23 24 26 28 27 28 29 29 30 30 31 32 32 33 33 34 34 35 35 36 38 39 40 39 39 40 41 42 41
16 17 18 20 22 24 26 28 28 30 31 33 34 34 35 36 35 35 35 37 37 39 40 41 41 43 43 44 44 44 45 47 47
15 15 17 19 19 20 22 23 23 25 26 28 31 33 36 37 38 38 38 39 40 41 42 42 43 43 44 45 46 47 50 51 52
16 18 18 19 21 23 23 23 24 26 27 27 29 31 33 35 36 37 38 39 39 41 43 43 45 45 46 45 44 43 44 43 43
20 24 27 27 27 27 26 27 28 30 32 33 35 37 38 39 41 42 42 42 42 43 44 44 43 43 41 41 40 40 40 40 39
28 31 32 35 37 35 34 32 33 32 33 36 38 39 40 40 40 42 43 44 45 45 43 42 41 40 39 39 39 39 40 41 41
31 34 36 36 35 36 35 33 34 36 37 39 41 42 40 39 39 40 40 40 41 41 40 41 42 42 42 41 41 42 43 44 44
31 32 34 35 35 35 33 30 32 34 36 39 41 40 39 38 37 38 38 38 38 39 40 41 42 44 45 45 45 45 46 46 46
28 33 34 30 27 26 27 30 32 36 38 40 40 39 39 38 38 38 39 39 39 41 41 42 43 44 46 47 48 49 49 50 51
32 32 28 24 24 26 29 32 34 36 38 38 38 39 39 39 39 40 41 42 43 44 44 45 46 46 48 49 51 51 53 54 55
30 28 26 25 28 31 33 35 37 38 39 42 43 42 41 41 42 43 43 44 45 46 47 49 50 51 53 55 57 58 60 62 63
32 32 29 30 33 36 38 38 39 41 42 43 45 44 42 42 43 44 45 46 48 49 52 54 56 58 60 62 63 63 64 65 66
34 29 32 34 37 40 41 42 43 43 43 42 42 43 43 44 45 48 49 51 53 55 57 58 60 63 64 66 66 67 68 69 70
31 31 34 36 40 42 43 45 45 43 40 38 40 42 44 46 47 51 54 56 58 60 62 64 66 68 70 71 71 72 72 73 73
30 32 35 39 41 42 44 46 44 39 40 42 42 43 45 48 52 54 57 60 62 65 67 69 70 71 71 70 70 70 71 72 73
33 35 38 41 42 44 45 42 40 43 45 45 46 48 49 51 51 56 61 64 66 67 68 68 68 68 68 68 70 72 74 74 76
37 39 41 42 44 45 43 43 44 46 47 50 53 56 59 60 60 58 62 64 66 65 65 64 65 67 70 74 77 80 81 83 85
40 41 43 44 46 44 44 45 46 48 51 54 56 59 64 68 68 66 67 65 62 62 64 67 70 75 79 83 85 87 89 92 94

GFSFLT1_500_spd_024.txt.gz
Wind_Speed
13 13 14 18 19 19 19 19 19 21 22 25 27 28 30 31 31 32 32 33 32 32 33 33 32 32 32 32 31 31 31 31 29
12 13 15 17 19 20 22 24 24 25 26 26 27 28 29 30 29 30 30 31 32 31 32 33 33 32 32 34 36 35 35 36 35
11 12 14 16 18 20 21 23 25 28 29 30 30 32 33 33 33 34 34 34 34 34 34 35 36 37 37 37 38 39 41 40 40
14 14 15 16 17 17 19 21 22 23 25 25 27 28 30 30 31 33 34 36 37 38 39 38 38 39 41 42 42 43 43 44 44
16 17 17 18 19 20 20 22 22 23 23 23 24 26 27 28 30 31 32 33 34 36 37 38 39 40 41 42 44 45 45 46 47
17 19 19 20 22 22 24 25 26 27 27 28 29 30 31 33 35 36 37 39 40 40 41 40 41 42 43 44 45 46 46 46 45
19 21 23 26 29 31 35 37 37 36 34 33 33 33 34 35 36 37 38 37 38 40 42 44 45 45 45 45 44 43 41 42 41
23 26 27 30 33 36 38 38 37 38 35 36 36 35 37 38 39 38 37 36 38 38 38 39 41 40 40 41 40 39 38 38 39
26 28 30 31 35 35 34 33 32 34 34 34 35 37 39 40 41 40 38 38 37 37 37 38 38 38 38 39 39 38 38 39 40
29 29 30 32 33 32 28 25 25 27 29 31 33 35 37 36 38 38 38 37 37 37 37 38 39 40 41 41 42 41 41 42 42
27 27 28 32 33 28 23 24 27 30 32 33 35 36 38 41 42 41 40 39 38 39 40 41 41 42 43 43 44 45 45 45 45
27 27 29 31 29 28 27 28 30 33 35 37 40 41 42 43 43 42 41 40 40 41 42 43 43 44 45 46 47 48 49 50 52
26 28 31 31 33 32 30 32 34 37 40 43 45 45 45 46 44 41 39 40 41 42 43 45 46 47 49 51 52 53 55 56 57
29 32 33 35 34 32 33 36 38 41 43 44 45 45 46 43 39 40 42 43 44 45 47 49 51 52 54 55 56 57 59 60 60
31 33 34 35 32 33 36 39 41 43 43 44 44 42 37 40 42 43 45 46 47 50 52 53 55 57 58 60 61 63 64 64 64
33 33 34 33 34 36 38 41 42 42 44 43 41 39 41 43 44 46 47 50 53 55 57 59 61 62 64 65 66 67 68 69 69
33 34 35 36 37 38 41 42 44 45 44 41 40 40 44 46 48 50 52 54 56 60 63 63 65 67 68 69 69 68 68 69 69
35 37 39 40 39 42 43 44 47 46 44 43 44 45 45 47 47 50 54 58 62 64 65 66 67 67 67 67 68 69 71 74 75
38 41 42 43 44 44 45 46 46 43 45 47 49 51 54 55 54 53 58 60 62 64 65 64 65 65 67 69 72 75 78 81 83
41 43 44 45 44 45 47 46 44 45 47 49 52 55 58 62 65 64 61 63 66 64 63 62 64 67 71 75 78 81 84 88 91

GFSFLT1_500_spd_027.txt.gz
Wind_Speed
11 13 14 13 15 16 17 18 19 20 21 21 21 21 23 24 24 25 26 26 27 28 29 29 30 30 30 29 30 31 31 31 30
11 11 12 12 13 15 16 17 20 21 23 24 25 25 27 28 29 30 30 30 30 30 31 30 31 31 31 31 31 31 33 34 33
13 12 12 12 13 14 15 17 19 20 22 23 24 23 25 27 27 28 29 30 30 31 32 32 33 34 34 34 35 36 37 37 38
15 14 15 15 15 16 16 18 20 19 19 18 19 19 20 21 23 24 26 27 29 31 32 33 32 33 34 35 37 38 39 40 41
16 16 16 18 18 18 18 18 20 21 23 23 22 23 24 26 27 29 30 31 31 33 35 36 38 38 37 36 37 39 40 41 43
18 19 19 19 20 21 24 27 30 32 32 31 30 30 29 30 32 32 32 33 33 34 36 36 37 38 39 41 42 42 40 41 42
21 21 20 21 24 27 28 31 34 36 34 33 30 29 30 32 34 35 35 37 37 36 36 36 36 35 36 37 38 40 40 39 38
23 23 23 24 27 29 30 34 34 30 29 27 26 27 27 31 33 34 36 33 34 34 37 35 35 35 35 34 33 33 33 33 34
25 24 24 26 29 29 30 31 26 21 20 22 23 26 27 28 30 30 34 38 39 39 37 36 36 36 36 36 36 36 36 36 36
27 27 27 29 28 29 30 27 21 19 20 24 26 27 29 31 34 36 38 38 39 39 37 35 36 37 38 39 40 40 40 40 40
28 27 28 29 28 29 29 26 24 24 26 28 30 32 35 38 40 42 43 42 41 41 38 36 37 38 39 40 41 43 43 44 43
26 27 28 28 29 30 30 31 30 30 31 33 35 37 40 41 42 43 44 43 41 38 37 38 39 40 41 42 43 44 45 46 47
26 28 29 29 31 32 34 35 32 34 35 37 38 41 42 42 43 43 41 36 36 38 40 41 42 43 45 46 48 49 50 50 51
27 29 30 31 33 35 36 34 30 33 36 39 42 43 43 44 43 37 37 40 41 43 44 45 47 49 51 53 53 54 55 56 56
28 30 32 33 34 35 35 32 32 35 38 42 43 44 45 44 40 40 42 44 46 47 50 52 53 55 56 57 58 60 59 60 61
30 32 34 34 35 36 35 34 36 38 40 42 45 46 46 43 42 44 46 49 50 53 55 56 57 59 61 62 62 62 62 64 65
33 34 35 37 37 37 38 39 41 42 43 43 45 44 44 44 45 47 50 53 55 57 59 61 64 64 64 64 64 66 67 68 69
36 37 37 38 39 40 42 44 45 46 45 46 47 44 43 44 45 48 53 56 58 60 63 67 67 67 68 69 69 69 70 71 73
39 39 39 40 41 43 45 46 47 47 49 48 46 47 49 49 49 49 52 55 58 63 65 66 69 69 69 70 71 72 74 76 77
38 38 39 40 43 46 48 48 47 49 49 48 48 51 54 56 58 57 56 59 61 63 66 69 68 66 67 69 71 75 78 81 84

GFSFLT1_500_spd_030.txt.gz
Wind_Speed
14 15 15 14 16 17 18 20 20 20 20 20 20 21 22 23 24 25 25 26 27 27 27 28 28 27 28 28 29 29 28 28 31
15 14 14 14 14 15 16 17 17 18 18 19 19 22 23 24 24 26 26 26 27 27 28 30 31 30 30 30 30 31 31 31 31
16 15 15 14 13 14 15 16 16 16 17 17 18 19 20 20 20 20 21 20 23 24 25 28 29 30 31 31 31 32 33 33 34
17 16 16 16 15 16 16 17 18 19 18 19 18 19 20 21 22 22 24 24 27 27 27 30 32 33 35 36 35 34 33 35 36
19 18 17 18 18 19 19 20 20 22 23 27 27 27 27 27 26 26 27 27 30 30 30 31 31 35 37 37 37 37 38 39 38
21 20 20 20 20 21 21 22 25 29 30 33 32 31 30 30 29 29 30 31 32 33 33 33 34 36 36 37 38 38 37 36 37
23 22 22 23 23 23 25 25 29 31 32 30 27 26 26 26 26 27 28 31 31 30 30 31 33 35 35 36 35 35 34 34 34
24 24 25 25 26 25 25 27 29 31 29 23 19 20 20 22 24 26 26 29 30 33 35 36 38 38 37 34 34 34 34 33 33
28 28 27 28 27 27 27 28 30 30 24 19 18 19 22 23 25 27 30 33 35 39 39 40 41 40 39 37 36 36 35 36 36
30 29 29 29 28 28 27 29 29 28 25 24 24 25 26 28 29 32 36 39 40 42 41 41 41 41 39 37 37 38 38 38 38
30 30 30 29 29 29 30 30 30 30 29 31 31 31 31 32 33 36 39 40 42 43 42 40 36 35 35 37 39 40 40 42 42
29 29 30 28 28 29 31 31 31 33 35 35 35 34 35 36 37 40 41 42 43 42 38 36 38 39 40 41 42 43 44 45 46
30 29 30 29 29 30 31 32 33 36 38 34 33 35 36 38 40 42 43 44 43 39 38 41 42 43 45 46 47 49 50 51 53
32 30 31 31 31 31 32 33 35 36 36 33 34 36 38 41 42 43 45 45 43 41 43 44 47 48 50 52 54 56 57 58 59
34 32 34 33 33 33 34 35 36 36 37 36 37 40 43 43 44 47 47 45 44 45 47 49 51 53 55 56 57 58 60 61 62
37 35 35 34 34 35 36 37 37 39 39 40 41 45 45 44 47 49 48 47 48 50 52 54 56 57 58 59 61 62 64 64 64
39 37 36 37 37 38 39 40 40 41 41 42 45 47 46 48 50 51 50 50 52 54 57 59 60 61 63 64 66 66 65 66 67
38 39 40 41 41 42 42 43 43 43 44 46 48 47 47 49 48 49 51 55 57 58 60 62 64 67 68 67 67 68 69 70 71
37 38 40 42 43 44 44 45 45 45 47 49 50 49 52 51 47 47 52 55 57 60 63 66 67 68 70 72 72 73 73 73 73
38 39 40 41 43 44 46 46 46 47 50 51 50 51 51 51 53 53 54 57 59 61 61 62 66 70 72 72 71 70 73 75 77

GFSFLT1_500_spd_033.txt.gz
Wind_Speed
17 17 18 18 18 18 18 19 20 21 21 21 21 20 21 22 23 23 24 25 27 26 26 27 27 26 27 28 27 25 25 26 27
18 18 18 18 17 17 17 17 17 17 18 18 18 20 21 22 22 23 23 24 25 24 23 23 24 25 25 28 28 27 28 28 29
19 19 18 18 17 16 16 16 17 17 17 17 17 19 19 20 20 19 19 20 21 21 23 25 25 27 27 29 29 30 30 29 30
21 21 19 18 18 17 17 17 18 19 20 18 20 22 23 24 23 23 23 23 23 23 24 26 27 27 29 30 31 33 33 33 34
22 22 21 20 19 19 19 21 21 22 22 24 28 31 34 33 31 30 29 27 27 27 28 29 31 31 34 34 35 33 33 35 36
23 23 22 22 22 21 22 23 24 24 25 28 31 33 33 31 31 29 28 27 27 29 28 30 30 28 29 31 32 33 34 34 34
24 23 24 25 25 24 24 25 27 27 28 28 31 28 25 23 25 26 25 25 26 27 26 28 30 32 33 35 34 34 34 34 33
27 26 26 27 27 28 28 28 28 28 28 28 29 23 19 18 19 22 23 24 25 26 29 32 35 37 38 37 37 36 34 35 34
30 29 30 30 30 30 30 29 30 29 28 28 26 25 24 23 24 24 24 27 29 31 33 35 36 39 38 35 35 35 35 35 36
32 32 32 32 33 33 32 32 31 31 30 29 28 27 30 30 29 28 30 32 33 36 35 38 39 39 35 33 32 32 32 35 37
33 33 32 33 34 34 34 34 33 33 32 32 31 33 34 35 35 33 35 35 37 39 38 40 40 39 35 34 36 37 38 39 40
32 32 33 33 33 34 34 33 33 33 34 33 35 36 35 33 34 36 36 38 40 41 42 43 42 40 38 40 41 42 43 44 45
33 34 33 34 34 34 34 33 33 34 34 35 35 35 33 32 34 36 38 41 43 43 44 45 44 42 42 44 45 46 48 49 50
34 37 36 36 35 36 35 35 35 35 35 36 37 36 35 34 36 38 41 45 44 44 46 48 45 45 46 48 50 52 53 55 56
39 38 38 39 38 37 37 38 37 37 38 39 39 38 39 39 40 41 44 45 46 48 48 47 46 48 50 53 54 56 58 59 59
39 39 40 41 40 40 39 39 39 39 40 41 42 42 43 43 44 45 46 47 48 49 49 48 50 53 55 57 58 59 61 63 64
37 38 38 39 40 42 42 42 42 42 43 44 44 45 45 46 48 48 50 51 50 49 50 52 55 57 58 60 63 64 64 65 66
37 37 38 39 40 42 44 46 45 45 46 47 47 47 48 48 48 49 52 52 51 52 54 57 60 62 64 65 66 65 65 68 69
37 37 37 38 40 42 44 45 45 45 46 47 49 49 50 51 50 51 52 50 52 55 57 60 64 66 68 67 68 70 71 72 71
36 37 39 41 42 44 43 44 45 45 46 48 49 49 51 52 54 52 51 54 56 59 61 61 60 61 65 69 71 71 71 72 73

GFSFLT1_500_spd_036.txt.gz
Wind_Speed
20 19 20 20 20 20 20 20 19 19 19 20 21 21 21 21 22 23 23 23 25 24 24 24 23 22 21 22 22 22 24 24 24
21 20 20 20 19 19 19 18 17 18 17 17 17 18 18 20 21 22 23 23 24 22 22 20 19 21 22 23 23 24 25 26 26
22 21 20 20 20 18 18 17 17 17 17 17 17 18 21 21 23 20 23 22 22 22 21 21 22 22 22 23 23 24 26 28 27
22 21 20 20 20 19 19 19 18 18 19 20 21 22 23 25 27 28 27 28 26 25 25 24 26 26 26 27 28 30 30 32 32
23 22 21 21 21 21 21 21 20 20 21 22 23 25 28 32 33 36 33 32 30 29 27 29 28 28 28 26 26 28 29 30 32
25 24 23 23 22 23 23 23 23 23 24 25 28 29 31 32 29 29 25 27 27 27 27 28 27 25 23 28 29 31 34 32 33
26 26 26 25 24 24 25 26 26 27 27 27 28 29 29 29 24 22 21 21 22 22 25 25 24 26 28 31 33 34 35 34 33
25 26 27 26 27 27 27 28 29 30 29 28 28 29 28 26 23 22 20 21 21 21 24 26 27 29 30 31 35 33 30 31 32
26 27 27 29 30 31 31 31 31 31 32 32 31 30 29 27 26 29 29 26 26 25 27 29 30 32 34 34 35 33 30 29 28
30 28 28 30 31 33 34 33 33 33 34 34 33 32 31 31 29 31 34 34 31 31 30 31 33 35 36 37 37 35 32 32 33
31 30 28 29 31 32 33 33 34 36 35 35 35 34 32 33 33 34 34 35 35 35 33 33 36 37 39 39 38 38 36 36 37
33 32 31 30 30 30 32 33 35 35 34 34 35 35 34 33 33 33 30 31 32 34 34 37 39 39 40 41 41 40 40 40 41
33 34 34 34 33 32 33 35 35 35 35 35 35 35 35 34 34 34 33 32 34 35 36 39 39 41 42 43 43 41 42 43 45
36 35 35 36 36 36 36 36 36 36 37 37 37 37 37 36 36 36 37 36 37 37 39 41 41 44 45 45 43 44 46 48 50
36 37 35 35 38 40 39 38 39 38 38 40 38 39 38 38 39 39 40 40 42 42 42 42 45 47 47 46 46 49 51 52 53
36 36 37 37 37 40 41 40 41 42 41 42 41 41 41 42 42 42 43 43 43 44 46 46 48 50 50 48 50 52 55 56 58
38 38 36 39 38 39 40 40 40 42 43 45 45 46 45 46 46 45 45 47 47 46 48 50 52 53 51 52 55 57 58 59 60
39 39 37 37 36 40 41 38 40 42 44 45 46 47 47 46 45 46 46 47 48 49 50 52 54 55 56 59 61 61 61 60 62
40 38 39 38 36 41 40 38 41 43 45 47 48 48 48 47 47 47 47 48 49 50 51 53 55 59 62 63 63 64 65 66 66
39 37 39 40 41 43 38 38 43 46 46 47 47 48 49 49 49 47 48 49 51 52 53 54 57 60 61 62 64 67 68 68 69

GFSFLT1_500_spd_039.txt.gz
Wind_Speed
26 25 24 23 22 22 21 21 22 22 22 20 21 20 20 20 19 20 20 21 22 23 23 24 23 24 23 20 19 21 21 22 22
26 26 24 23 22 21 21 21 21 21 20 19 19 18 18 19 18 22 22 21 21 22 21 20 19 19 20 20 20 19 19 20 20
26 26 25 23 22 21 21 20 19 19 19 18 19 18 19 20 22 24 24 25 24 25 23 23 22 22 21 21 21 23 25 26 26
25 25 26 24 22 22 21 20 19 19 19 20 20 21 21 23 25 27 30 33 33 34 30 28 27 27 26 26 26 26 27 27 27
22 23 23 25 24 23 23 22 21 21 22 22 23 24 24 26 29 32 32 32 31 30 30 31 29 27 28 27 26 23 25 27 29
22 22 23 23 23 24 23 23 23 23 24 25 25 27 26 27 29 31 30 26 24 24 27 28 28 26 26 24 24 27 29 31 31
23 23 23 25 25 24 25 25 26 27 27 27 28 28 27 28 29 29 27 23 21 22 22 21 21 21 23 25 27 27 30 31 31
24 23 23 24 26 27 26 27 28 28 29 30 31 30 30 29 30 29 27 25 25 26 25 25 25 24 25 27 28 29 31 32 31
26 26 25 26 27 28 29 30 31 32 32 32 33 34 33 32 31 31 30 29 29 32 32 31 30 29 28 28 30 31 32 32 32
27 28 28 27 27 28 30 31 32 33 33 34 34 34 34 34 34 33 33 33 32 32 34 36 35 33 31 31 32 33 33 33 33
29 30 29 29 29 28 30 31 32 33 32 33 34 34 34 34 34 34 34 33 31 31 31 33 34 33 32 34 34 34 34 35 36
32 33 33 33 33 31 31 32 32 32 32 33 33 33 34 34 34 34 33 33 32 32 30 30 30 33 33 34 34 35 37 38 39
33 32 32 33 33 32 32 32 33 34 34 34 34 34 35 36 35 35 36 36 35 35 34 34 34 36 35 36 37 38 39 41 42
33 31 32 33 32 33 33 34 35 36 36 35 35 36 36 37 39 37 37 38 39 39 39 39 39 39 39 40 40 41 42 45 45
31 31 32 32 32 33 35 35 37 38 37 36 38 39 39 39 40 39 40 42 42 43 43 43 43 43 43 43 44 44 46 47 47
34 33 33 33 33 34 36 36 40 38 38 37 37 39 40 41 43 44 45 46 46 46 46 45 45 45 46 46 46 47 49 49 50
37 35 34 35 35 35 34 35 36 38 42 40 39 39 40 42 44 45 46 46 46 46 46 46 47 47 48 48 49 50 51 53 56
36 34 36 36 37 37 34 36 36 38 39 36 38 40 42 44 45 46 47 47 47 47 46 47 47 49 50 51 52 53 56 58 59
35 35 37 37 39 37 34 36 39 40 38 39 39 43 44 45 45 46 47 48 48 48 48 48 50 51 53 53 55 58 60 61 61
38 38 37 38 38 38 37 37 38 39 40 41 42 44 44 45 46 47 47 48 50 50 50 51 52 52 53 56 59 61 62 63 63

GFSFLT1_500_spd_042.txt.gz
Wind_Speed
27 27 26 26 25 24 24 24 24 24 24 23 23 22 21 20 22 19 20 20 21 22 22 22 22 22 21 22 20 19 20 21 21
27 27 27 27 27 26 25 23 23 23 24 23 21 21 18 19 21 20 20 23 25 25 26 25 23 23 20 22 22 21 21 20 20
25 25 26 26 26 26 25 23 22 22 21 20 19 19 20 20 22 24 24 25 26 27 30 31 28 26 24 25 24 25 24 24 26
25 23 24 24 25 24 23 23 22 22 21 21 21 21 22 23 24 25 27 29 32 32 33 33 33 31 30 30 29 28 28 29 28
22 23 23 23 23 23 23 22 23 23 22 23 23 24 24 26 26 27 29 29 31 32 29 27 27 28 30 30 29 30 28 24 25
22 22 22 22 23 24 24 24 24 24 24 25 25 26 28 29 29 28 29 29 30 29 26 24 23 25 25 27 26 24 23 25 27
23 23 22 23 23 24 25 25 25 26 27 28 28 28 30 31 31 31 31 29 29 28 26 24 22 23 23 24 24 24 25 26 28
24 24 23 23 23 24 26 26 27 28 29 30 31 32 32 33 33 34 33 31 30 30 28 30 29 30 28 28 27 28 27 28 29
26 25 25 25 25 25 25 25 27 29 32 34 34 35 35 36 36 35 35 34 33 32 33 32 33 34 35 33 32 32 30 30 31
28 28 27 27 27 26 27 27 28 29 30 32 34 35 35 36 36 35 35 35 34 34 33 33 34 34 37 38 37 34 33 33 33
30 29 29 29 29 29 30 30 31 31 31 32 33 34 34 34 34 34 34 34 34 34 34 33 33 33 34 35 36 35 35 35 33
30 31 31 31 30 31 31 31 31 32 33 34 33 33 34 34 34 34 35 35 35 36 36 35 35 34 34 34 35 35 36 36 36
32 33 30 29 29 30 31 31 31 32 33 35 35 34 35 35 35 35 37 37 37 39 38 39 38 38 37 38 38 38 39 39 40
33 32 31 30 30 30 30 30 30 32 34 35 37 37 36 37 37 38 38 39 38 38 39 39 40 42 42 42 42 43 43 43 43
33 33 33 31 31 30 31 31 32 33 34 35 36 37 37 37 38 38 39 40 41 42 43 44 45 46 46 46 46 45 46 46 46
34 34 35 33 33 32 34 34 33 34 34 35 33 32 38 41 38 37 38 40 41 42 43 44 46 47 47 47 46 46 47 48 48
35 35 33 32 34 35 36 36 35 36 36 36 36 37 39 36 36 37 40 42 42 43 44 45 46 47 48 48 48 48 49 50 51
38 36 34 32 34 35 35 36 37 36 36 36 37 37 34 37 39 40 41 43 43 43 44 45 46 47 48 49 49 50 51 52 53
41 40 36 34 34 35 35 36 37 35 35 37 39 40 38 37 38 40 41 42 43 46 48 49 49 49 50 50 51 52 54 54 56
41 42 39 37 37 37 37 37 37 36 37 39 39 36 38 40 42 42 42 44 46 47 50 51 51 51 51 52 53 54 54 57 61

GFSFLT1_500_spd_045.txt.gz
Wind_Speed
23 24 25 24 24 24 24 24 24 24 23 22 22 23 23 23 23 23 21 20 21 21 23 25 26 25 24 22 21 20 19 19 21
24 24 25 25 25 25 24 25 24 24 22 21 21 22 21 20 19 20 21 21 23 26 25 27 28 29 27 26 24 23 23 22 22
22 23 24 25 24 23 23 23 23 23 22 20 20 20 21 21 21 21 23 25 26 27 29 32 32 33 32 31 28 27 24 25 25
19 20 22 23 22 23 23 23 22 22 22 21 20 22 22 23 23 25 26 27 28 30 30 30 30 30 29 29 29 29 29 29 28
21 21 21 21 21 22 22 23 24 23 22 22 22 23 25 25 25 27 27 29 30 31 31 30 27 25 24 25 26 29 28 29 28
22 21 22 22 22 22 23 23 24 24 24 25 26 27 28 28 28 29 29 30 31 32 31 29 27 26 23 23 23 25 25 24 23
23 23 23 22 21 22 21 22 23 25 26 27 29 29 31 32 32 32 33 32 31 34 33 31 28 27 28 27 26 26 26 25 25
25 24 24 23 23 23 22 22 23 23 24 27 30 32 33 34 35 35 36 35 35 35 33 32 31 31 31 31 33 32 31 30 30
27 27 27 25 25 26 26 25 25 25 25 26 29 31 34 37 38 39 39 38 36 35 33 32 33 33 32 32 34 36 37 37 35
28 28 28 27 27 28 28 27 27 28 28 29 30 31 33 34 35 36 36 35 33 32 32 31 32 32 32 33 32 34 37 39 39
27 28 30 29 27 28 29 29 29 30 30 30 31 32 34 34 34 35 35 35 34 34 33 34 33 33 33 34 33 33 33 35 37
28 30 31 31 29 29 28 29 30 30 30 30 31 33 34 34 35 36 36 36 35 35 36 37 36 36 37 37 36 35 36 37 37
27 31 32 31 31 30 29 29 30 30 29 30 31 32 34 35 36 37 37 37 38 38 38 38 37 37 37 37 38 39 40 40 41
29 31 31 31 31 31 30 29 29 29 30 31 32 32 33 34 36 36 37 37 37 38 39 39 40 41 41 41 42 43 44 44 45
33 33 31 31 33 34 32 32 32 32 34 34 34 34 34 34 34 33 34 38 37 37 35 36 38 39 40 41 42 43 44 46 46
36 36 35 32 33 34 34 36 37 36 36 37 37 37 38 38 36 34 37 36 34 35 36 37 37 38 39 40 41 42 43 44 45
40 40 38 35 33 32 34 36 36 36 36 36 37 37 36 36 36 36 36 35 37 37 38 38 39 40 42 43 44 45 46 47 48
44 45 42 39 36 34 35 37 36 34 35 35 35 35 36 37 37 37 37 36 37 38 39 40 41 41 43 44 46 48 49 50 51
46 46 44 43 39 40 38 36 36 36 36 37 37 36 36 38 37 37 39 40 42 42 43 44 43 43 44 46 48 49 49 50 52
43 49 50 48 46 43 40 39 38 39 39 38 39 38 39 38 38 39 40 43 43 44 46 46 47 48 49 49 50 51 52 54 56

GFSFLT1_500_spd_048.txt.gz
Wind_Speed
20 19 19 20 21 22 23 22 22 22 22 23 24 24 24 24 24 23 22 21 20 20 20 22 22 23 25 27 26 25 22 22 20
18 19 19 19 20 21 22 22 22 22 22 23 23 24 23 23 22 21 21 21 21 22 24 23 24 26 27 29 29 29 25 24 23
17 17 17 17 19 20 19 20 20 20 20 20 21 21 21 20 21 22 22 22 25 25 26 26 26 27 28 28 25 26 27 27 26
19 18 18 18 18 19 19 20 20 19 19 19 20 20 21 21 22 23 24 25 26 27 26 27 27 29 27 26 23 23 24 26 27
22 22 21 20 19 19 20 20 20 21 21 21 21 22 22 23 24 25 27 28 29 29 28 29 29 29 27 25 23 22 22 23 23
24 24 22 22 21 21 21 21 21 22 22 23 24 24 25 26 27 28 29 30 32 31 31 31 30 30 29 26 24 24 23 23 23
25 24 24 22 22 22 22 22 22 22 22 23 24 25 27 28 30 31 31 31 34 34 34 34 34 31 29 28 27 27 27 27 27
25 26 26 24 23 24 23 23 23 24 24 24 24 25 26 28 30 32 34 35 36 37 37 36 34 33 31 31 29 29 29 30 31
27 26 26 27 26 25 24 24 24 24 25 25 25 26 27 28 29 30 31 33 34 36 35 33 32 31 30 30 29 29 30 31 32
26 27 28 28 27 26 26 25 25 25 26 27 27 28 29 30 31 32 32 32 32 32 33 32 32 31 31 31 30 30 31 31 31
26 27 29 30 28 28 27 27 27 26 26 27 28 28 29 29 30 31 32 33 33 33 34 34 34 33 34 34 33 34 34 34 33
26 27 28 28 27 28 29 28 28 27 26 27 27 27 28 28 29 31 32 32 34 35 35 35 35 35 35 35 35 36 37 36 37
27 27 28 29 28 29 29 28 29 28 28 28 28 28 29 30 30 31 32 33 34 36 35 35 35 36 36 37 36 36 37 38 39
29 29 31 31 30 30 30 29 29 30 31 31 30 30 32 33 33 32 33 34 32 31 31 33 34 34 33 33 34 35 36 37 38
31 31 34 34 32 31 32 31 31 33 34 35 34 36 36 36 36 36 36 35 34 31 31 32 31 33 34 35 34 34 35 36 37
34 35 36 36 33 33 33 33 33 32 34 33 35 36 36 35 34 33 33 33 33 35 33 31 31 32 34 35 37 39 41 42 41
38 40 38 39 38 36 34 35 36 35 36 35 36 34 34 34 32 33 34 35 34 33 32 32 34 35 35 36 37 38 39 41 42
43 45 43 42 40 40 38 41 41 37 38 39 36 34 34 35 35 35 35 36 35 36 36 37 37 37 38 39 40 41 42 43 44
45 45 43 42 42 43 43 43 39 37 39 39 36 35 36 37 37 37 37 37 38 39 40 40 39 40 42 43 44 45 46 47 47
44 44 43 43 42 42 45 46 47 44 41 41 40 38 38 40 41 40 41 38 40 41 42 43 43 43 46 47 48 47 47 47 49

GFSFLT1_500_spd_051.txt.gz
Wind_Speed
18 19 19 19 19 17 17 18 18 20 20 21 21 21 21 22 22 22 22 22 21 19 19 19 22 22 23 23 24 24 24 23 22
19 18 17 17 17 17 17 19 19 20 20 19 20 20 20 20 21 20 19 20 20 20 20 22 23 23 23 24 25 24 23 23 24
21 19 18 18 18 18 19 19 20 21 21 20 20 20 20 20 19 19 19 20 21 21 23 24 25 25 24 24 24 23 21 20 21
22 21 21 20 19 20 20 20 20 21 21 20 19 20 20 20 21 21 22 23 24 25 25 26 26 27 27 26 24 22 20 19 20
24 24 24 24 23 21 21 22 21 22 22 21 21 21 22 22 23 24 25 26 27 27 28 28 29 28 28 27 26 23 21 20 19
24 24 24 25 25 24 24 23 23 22 23 23 22 23 23 24 25 26 27 29 30 31 31 32 32 31 31 31 28 26 24 23 22
24 24 23 23 24 24 24 24 24 23 23 22 22 23 23 23 24 26 27 29 30 31 32 33 34 35 34 31 29 28 27 27 26
24 23 23 23 23 24 24 24 24 24 24 24 23 23 23 24 24 24 25 27 29 30 30 31 31 31 31 29 27 28 28 28 27
24 24 23 24 24 25 24 24 24 24 25 25 24 25 25 26 26 27 27 27 28 28 29 29 29 29 29 29 29 29 28 28 28
27 26 26 27 26 25 25 25 26 25 26 26 25 25 26 26 26 27 27 27 28 28 28 29 29 30 30 31 31 31 31 30 30
29 27 27 28 26 26 26 25 26 26 26 25 25 25 25 26 25 25 25 26 27 28 29 30 31 31 31 31 32 32 33 32 33
30 29 28 29 28 26 27 26 24 25 26 26 26 26 26 26 27 26 26 28 29 28 28 29 31 32 32 31 31 33 34 34 34
33 31 30 32 31 28 29 27 26 26 25 26 26 27 28 28 28 28 30 31 31 31 31 30 29 29 30 31 31 31 30 31 32
36 34 33 34 33 32 32 30 27 28 28 28 28 28 30 30 31 30 30 31 32 31 30 28 28 29 31 30 30 30 31 29 29
38 36 36 36 36 35 34 32 29 30 31 29 29 30 31 31 31 30 29 28 29 29 29 28 28 29 30 30 31 31 32 33 33
41 40 39 37 37 38 36 34 32 32 34 33 34 33 33 32 32 31 31 30 29 29 30 30 29 27 28 31 32 33 33 33 34
44 44 41 42 41 41 39 38 35 35 35 35 40 38 37 35 35 32 32 32 31 32 32 32 31 33 34 35 34 35 36 37 38
47 47 45 44 44 44 42 42 41 38 38 38 37 38 38 39 37 35 34 34 35 35 36 35 35 36 37 38 38 39 40 40 42
49 50 48 47 47 46 43 43 39 40 39 40 39 41 38 36 38 38 37 36 37 38 39 40 38 40 40 40 41 43 44 44 44
52 52 51 51 50 48 45 43 40 40 40 40 42 42 46 41 40 44 41 41 40 39 42 42 45 44 44 44 44 46 47 46 43

GFSFLT1_500_spd_054.txt.gz
Wind_Speed
18 19 18 18 18 18 19 19 19 19 18 19 19 19 19 20 20 21 21 21 20 19 19 19 20 20 22 23 23 22 22 22 22
20 19 20 20 19 18 17 16 16 18 19 19 21 21 20 20 20 20 20 20 19 20 21 21 22 23 24 24 23 23 24 22 21
22 21 21 21 21 21 21 21 22 22 23 23 22 21 21 20 21 20 21 20 20 22 23 24 24 25 25 25 25 24 23 21 20
23 23 23 22 22 22 22 23 23 23 23 22 22 21 22 22 22 22 23 23 23 24 25 27 27 28 27 27 27 26 24 23 20
24 25 25 25 24 24 24 23 24 23 23 23 23 23 22 23 24 24 25 26 25 27 28 29 30 30 30 29 28 28 28 24 23
25 25 25 24 24 23 23 23 23 23 23 23 23 23 23 22 23 24 25 26 27 28 29 30 30 31 31 31 31 29 27 25 25
25 24 23 23 23 22 22 23 23 23 23 24 24 23 24 24 24 23 25 26 25 26 27 28 29 29 29 29 28 26 25 25 25
25 23 22 23 23 23 23 24 24 24 24 24 24 24 24 25 25 25 25 28 28 27 28 28 28 27 27 27 27 26 27 27 27
26 24 24 24 24 25 25 26 26 26 25 25 24 25 25 25 25 26 26 27 27 28 28 27 27 27 27 27 28 28 28 28 29
28 27 26 26 27 26 27 27 26 26 26 25 25 25 25 25 25 25 25 25 26 25 24 26 26 26 27 28 29 29 30 30 30
29 30 30 29 29 29 28 28 26 25 25 25 25 24 25 25 25 25 25 25 26 26 26 27 27 27 27 29 30 30 30 30 32
33 34 32 32 32 32 30 29 28 27 26 26 25 25 26 26 26 26 25 26 26 28 28 28 28 29 29 28 28 28 29 29 30
37 38 37 36 34 35 33 32 31 29 28 28 27 27 27 27 27 27 28 28 27 26 27 28 29 27 28 28 29 29 29 28 29
40 40 40 40 38 37 37 35 34 32 31 30 30 28 28 29 29 29 29 28 27 26 26 27 27 27 27 28 29 29 28 29 30
44 43 43 42 41 40 39 38 37 35 33 33 32 31 32 31 33 33 30 29 29 28 28 28 27 27 28 28 27 27 28 29 30
48 47 46 46 45 44 43 42 38 38 37 35 34 33 33 32 35 38 35 33 32 31 30 30 29 29 30 30 31 32 32 33 33
50 50 50 49 48 47 47 46 44 42 41 39 36 36 34 33 35 37 39 39 37 35 33 32 32 33 33 34 35 36 37 36 36
52 52 52 51 51 50 50 49 47 46 44 42 42 40 39 37 36 36 41 37 40 40 37 33 36 36 36 38 39 39 41 42 41
53 53 55 55 54 53 51 50 49 49 46 46 42 41 41 40 39 38 36 38 38 37 37 37 37 39 43 44 42 44 47 46 47
58 57 57 54 55 55 54 52 51 51 51 49 46 44 43 43 42 43 42 41 41 45 45 44 37 41 45 47 45 50 50 50 50

GFSFLT1_500_spd_057.txt.gz
Wind_Speed
19 19 19 19 20 20 20 19 17 16 16 16 16 18 19 20 21 22 21 21 21 20 20 20 19 20 21 22 22 22 22 22 22
20 20 20 20 21 21 20 20 19 19 20 21 21 21 20 20 20 20 20 19 20 19 20 20 21 22 23 24 24 24 24 23 22
21 21 22 22 22 22 22 23 23 22 22 22 22 22 21 20 21 20 20 20 20 21 22 23 24 25 25 26 26 26 25 24 23
22 22 22 23 22 23 24 23 23 23 23 23 23 23 23 22 22 22 22 22 22 23 24 25 25 27 27 28 29 28 27 25 25
22 23 24 24 24 24 23 23 23 23 23 23 23 23 23 23 23 23 23 23 24 25 26 27 28 28 28 28 29 29 28 27 25
24 25 25 25 24 23 22 22 23 23 23 23 23 23 23 23 23 24 24 24 24 25 26 26 26 26 27 27 27 27 26 24 22
26 25 24 23 23 22 21 22 23 23 23 23 24 24 24 24 25 25 27 25 25 25 26 26 26 27 27 27 26 25 24 23 22
26 26 23 23 22 22 23 24 24 24 24 25 25 25 25 25 25 25 27 27 25 26 26 26 26 26 25 25 23 24 24 24 25
26 25 24 24 24 25 25 25 26 26 26 25 25 25 25 25 25 24 24 27 27 26 25 26 25 24 25 25 26 25 25 26 27
27 26 26 26 26 27 27 28 28 28 27 27 25 25 25 25 25 22 24 25 26 25 25 26 26 27 27 28 27 27 26 27 27
30 29 28 29 30 31 30 30 31 30 29 28 25 26 25 25 26 24 25 25 25 25 27 26 28 28 27 27 28 27 26 25 25
33 32 31 33 34 34 34 33 34 33 33 31 28 27 27 27 27 26 25 26 26 25 26 28 26 25 24 24 25 24 24 25 26
38 36 36 36 37 37 37 37 36 36 35 34 33 31 30 29 29 29 28 28 28 27 28 27 26 25 24 23 23 24 25 26 27
43 41 41 41 41 40 39 39 40 40 39 37 35 34 33 32 31 31 31 31 31 30 29 29 28 27 26 25 24 24 26 26 25
45 45 44 45 44 43 44 43 43 44 42 39 37 36 35 33 33 33 33 33 34 33 32 31 32 31 29 27 26 26 28 29 29
47 46 46 47 48 48 48 47 46 46 46 44 40 40 38 36 35 35 35 35 35 35 35 35 35 35 33 31 30 29 30 32 32
48 49 49 50 50 52 51 51 50 50 50 49 47 44 42 39 37 39 39 38 36 34 35 37 39 39 37 33 33 36 35 37 36
52 52 53 55 56 55 55 53 53 53 53 51 51 48 44 42 41 42 42 42 40 37 36 35 34 37 37 38 34 38 40 45 42
54 54 54 55 56 56 56 56 52 54 53 53 52 51 48 46 44 43 43 43 43 41 41 41 39 40 38 39 37 38 42 44 47
56 58 57 57 58 57 57 58 57 56 56 55 53 52 51 50 48 46 45 46 45 45 44 43 43 43 43 41 41 44 47 47 47

GFSFLT1_500_spd_060.txt.gz
Wind_Speed
19 18 18 17 17 17 17 18 18 18 17 17 18 19 20 18 17 17 17 17 17 17 17 17 17 18 19 20 21 22 23 23 22
19 19 19 18 18 18 18 18 19 20 20 21 21 21 21 19 18 16 17 19 20 17 17 18 19 20 22 22 24 24 24 24 24
20 20 20 19 19 19 18 19 20 22 22 23 24 23 22 20 21 19 19 20 21 20 20 20 21 22 23 24 25 25 25 24 24
21 21 20 20 20 20 20 20 21 21 22 22 23 23 23 22 21 20 20 21 22 21 21 22 23 24 25 25 25 24 24 24 23
22 22 22 21 21 21 20 20 20 20 21 21 21 21 21 21 21 21 21 21 22 23 22 22 23 23 24 25 25 24 24 23 23
24 23 23 23 22 20 18 18 19 19 20 21 20 20 21 21 20 21 21 21 23 23 23 23 23 24 24 24 25 24 23 22 20
23 23 23 22 21 21 20 20 20 21 21 21 21 22 22 22 21 23 24 22 22 23 23 23 23 23 23 23 23 23 20 19 19
24 24 23 22 21 22 22 22 22 23 23 23 23 23 23 22 21 23 24 24 23 22 23 23 23 23 23 23 22 23 23 23 21
26 26 24 23 24 24 24 24 25 25 24 24 25 26 25 23 22 23 24 25 24 23 23 23 23 23 24 24 25 25 24 23 22
26 25 25 24 24 26 26 26 27 27 27 27 26 27 27 26 25 22 25 25 25 25 25 24 25 25 25 25 24 23 23 23 21
30 28 27 27 27 27 29 29 29 29 30 30 29 28 28 29 27 24 26 26 25 25 24 25 26 26 26 24 22 22 22 22 21
33 33 31 31 32 31 31 31 31 32 31 32 33 30 30 30 30 27 26 28 26 26 26 26 27 27 26 25 23 22 21 20 20
36 36 37 36 36 37 37 36 35 34 36 35 36 34 32 32 32 31 28 29 29 28 28 28 29 29 28 27 27 25 24 22 22
39 39 38 39 38 38 39 41 40 38 39 39 39 36 35 35 33 33 32 30 30 31 30 30 30 30 30 30 30 28 27 26 25
41 41 41 41 41 41 41 43 44 43 44 44 44 41 40 38 37 34 33 34 33 31 32 32 33 33 33 32 33 32 31 29 29
43 43 44 45 45 45 46 47 47 47 48 48 47 46 45 43 40 38 37 36 37 35 34 35 32 32 33 34 37 36 34 33 33
46 46 46 48 48 48 48 49 49 50 49 50 51 50 49 45 44 43 42 41 39 39 39 38 36 37 34 31 31 36 41 39 38
49 50 49 49 51 50 51 51 52 52 51 52 51 51 49 48 47 45 46 45 42 41 42 40 40 39 39 37 37 32 30 35 34
52 52 54 55 55 55 55 55 54 54 53 54 52 55 54 52 50 47 47 47 45 43 43 42 43 42 41 40 40 40 40 38 37
49 52 56 57 59 57 59 59 60 58 58 56 55 55 56 56 53 52 49 48 48 46 46 47 46 48 45 42 44 43 41 39 40

GFSFLT1_500_spd_063.txt.gz
Wind_Speed
16 17 17 16 16 16 16 16 16 17 17 18 19 19 21 22 21 20 19 16 16 19 16 16 16 16 16 18 20 21 22 21 21
16 17 18 17 16 16 16 16 16 17 18 18 20 20 21 22 21 21 19 19 18 17 17 17 18 19 19 20 21 21 21 22 21
18 19 19 18 17 17 17 17 17 17 18 18 19 19 20 21 20 20 21 20 19 18 18 18 19 19 20 20 21 22 21 22 21
18 18 18 18 18 18 18 18 17 17 17 17 17 18 17 19 18 18 19 19 19 19 19 19 19 20 20 20 20 21 21 21 20
18 18 18 18 18 18 18 17 17 16 16 16 16 17 17 19 18 18 19 20 20 20 20 21 20 21 22 21 21 20 20 20 19
18 19 19 19 20 20 18 18 18 18 18 18 18 18 18 19 20 19 19 21 21 22 21 21 21 21 21 21 21 20 19 19 17
17 19 19 20 20 20 20 20 20 20 20 19 19 20 20 20 21 20 20 20 21 22 23 22 22 22 21 21 20 19 18 19 19
20 19 20 21 21 21 21 22 21 21 22 21 21 22 22 21 21 23 22 21 21 21 22 22 22 22 21 21 21 21 22 22 21
23 23 22 22 21 23 24 24 23 23 24 24 24 25 24 22 23 23 24 23 22 23 23 23 23 22 22 22 22 22 23 21 20
25 25 25 25 26 26 26 26 26 26 25 26 26 27 27 25 24 23 25 24 24 25 24 24 22 22 22 22 23 23 22 22 21
26 26 26 27 28 30 30 29 28 28 29 29 29 28 29 28 26 25 25 26 26 26 25 24 24 24 24 24 25 23 22 22 21
28 29 28 29 30 31 31 32 33 34 34 34 34 33 32 31 29 28 26 28 28 27 27 26 26 26 26 26 27 26 25 24 23
31 32 32 32 33 33 33 34 34 35 35 36 37 36 36 35 33 31 31 30 31 30 28 28 28 29 29 28 29 29 29 28 26
34 34 35 35 37 37 37 38 39 39 38 39 39 40 40 40 38 35 35 34 33 33 32 31 31 31 32 31 32 32 31 31 30
34 36 38 39 40 41 41 42 43 43 44 44 44 43 44 44 42 40 36 37 35 36 35 35 34 33 33 32 32 33 34 34 35
38 39 40 42 43 44 45 45 45 44 46 47 47 47 47 45 45 45 42 39 39 39 39 39 38 37 37 36 33 32 35 34 36
42 42 43 43 43 44 46 47 46 46 47 49 52 52 49 47 46 46 45 43 42 41 43 45 44 42 41 40 40 37 36 36 34
44 43 44 44 46 47 48 49 50 50 53 53 55 56 54 54 51 49 49 47 46 44 44 46 45 45 43 41 40 40 40 42 39
47 46 46 46 48 48 51 52 53 53 55 58 57 58 58 58 58 53 50 50 51 49 47 45 46 44 43 43 41 41 43 46 44
45 47 48 48 48 47 48 51 54 56 58 59 61 61 60 61 59 58 56 52 51 50 49 47 46 47 47 44 44 45 44 47 49

GFSFLT1_500_spd_066.txt.gz
Wind_Speed
14 12 12 13 13 14 15 15 14 15 16 16 16 17 17 19 20 21 21 20 20 20 20 19 18 17 18 18 18 19 19 19 19
13 12 12 13 13 14 15 16 16 16 17 17 18 17 17 17 18 18 19 18 19 19 19 19 19 18 18 18 19 19 20 20 19
14 13 13 14 14 15 16 16 16 17 18 18 17 16 16 16 17 17 17 17 16 18 18 18 19 19 19 20 20 20 20 20 20
14 14 14 14 15 16 17 17 17 16 17 17 16 16 17 16 16 16 16 17 17 17 18 19 20 20 19 20 20 20 21 20 20
15 15 14 15 15 16 17 17 17 16 16 16 15 16 18 18 17 17 18 18 18 18 18 19 19 19 19 20 20 20 20 19 19
17 17 16 17 17 17 18 18 17 18 18 18 18 18 19 20 18 19 19 20 20 19 19 19 19 19 19 19 19 20 20 19 18
15 16 18 20 20 20 20 20 21 21 21 21 21 20 21 21 21 20 19 20 22 21 21 21 21 20 20 19 19 19 19 19 19
16 16 17 20 22 22 22 22 23 24 23 23 23 23 22 23 23 23 23 21 22 22 22 22 22 22 21 19 19 19 20 20 20
21 20 20 21 23 24 24 25 25 26 27 27 27 26 25 25 25 25 26 24 23 23 23 23 23 22 22 20 21 21 21 21 21
24 23 24 25 25 26 27 27 27 29 30 31 30 30 29 28 27 27 27 27 27 25 25 26 25 24 24 22 22 23 23 23 22
25 26 27 27 27 28 29 29 30 31 32 33 34 35 34 33 32 31 28 31 30 29 29 28 27 26 26 25 25 25 26 25 24
27 28 29 30 31 32 31 32 33 33 34 34 35 36 37 36 35 34 32 32 33 32 32 33 31 30 29 29 28 27 28 28 26
29 30 31 32 33 33 33 34 35 35 36 37 38 40 41 40 39 38 38 37 36 35 35 35 34 33 33 32 32 31 30 31 30
30 31 32 33 35 34 35 35 37 36 38 39 41 43 44 44 43 43 42 41 40 39 38 38 38 37 36 36 35 34 33 32 33
34 33 34 35 35 37 38 39 39 40 41 42 44 45 44 45 46 44 44 43 43 42 41 42 40 40 39 39 39 38 37 35 35
36 36 36 37 40 41 43 42 42 42 44 47 45 46 47 47 47 49 49 49 45 43 43 44 44 45 44 43 43 43 41 39 38
38 37 39 40 42 43 43 45 45 45 47 48 50 50 50 51 52 54 54 53 52 49 47 46 47 48 48 47 48 49 47 43 41
42 43 41 42 43 44 44 46 46 46 48 47 51 51 51 52 54 56 57 58 56 55 51 49 50 49 49 49 47 47 48 48 44
46 46 45 45 44 44 45 45 45 45 45 49 51 56 57 59 59 58 58 59 59 58 56 54 52 50 49 50 47 49 51 45 46
44 45 46 46 46 47 45 44 44 46 49 51 53 55 58 60 61 60 60 62 54 60 59 59 52 50 51 53 49 49 56 57 48

GFSFLT1_500_spd_069.txt.gz
Wind_Speed
14 14 13 13 13 13 12 12 12 13 15 16 18 19 18 18 18 17 17 17 17 16 16 17 17 16 17 18 18 18 19 20 19
14 14 13 13 14 14 13 13 14 14 16 17 18 18 18 18 18 19 18 17 18 18 17 17 16 16 16 16 17 18 19 19 19
15 14 14 14 15 14 15 15 16 16 18 18 19 18 17 17 18 18 18 18 19 19 19 18 18 17 18 17 17 18 19 19 19
15 14 15 15 15 16 16 15 16 16 17 19 20 20 20 20 20 20 19 18 19 20 20 20 19 19 18 18 18 19 19 19 19
17 15 15 15 16 17 16 16 16 16 17 18 20 22 22 22 22 22 21 20 19 20 20 20 20 20 20 19 20 19 19 19 18
17 17 16 16 17 18 18 18 18 18 19 19 20 22 23 22 22 23 24 23 22 22 21 20 21 21 21 21 20 20 20 19 18
16 16 18 20 19 19 20 20 21 21 22 23 23 23 24 24 23 24 23 24 24 25 23 22 21 22 22 21 21 20 20 21 20
18 18 19 20 21 22 23 23 24 25 25 25 26 27 27 26 27 27 25 25 26 26 26 26 25 24 24 23 23 22 22 22 22
20 19 20 22 22 23 24 24 25 26 28 28 29 29 29 30 30 31 30 30 29 29 28 28 28 28 26 26 25 24 24 23 23
22 22 23 24 25 25 25 25 26 28 29 30 30 31 32 33 34 35 35 34 34 33 33 32 30 30 30 29 28 27 27 26 25
23 24 25 26 26 27 29 29 30 30 32 32 33 34 34 34 35 36 37 37 37 36 34 35 34 33 33 33 32 31 30 29 28
26 27 28 29 29 30 31 31 32 32 33 34 35 36 37 37 38 39 38 40 41 41 40 37 37 36 35 35 35 34 34 33 31
28 29 30 32 32 32 33 34 35 35 35 36 38 38 39 39 41 41 42 43 42 42 43 43 42 41 41 39 38 38 37 37 36
31 31 32 34 34 34 35 37 37 38 39 40 39 41 40 42 44 44 44 43 45 45 45 44 44 45 44 44 43 41 41 40 39
32 32 35 36 35 36 36 37 40 40 40 41 42 43 43 44 44 44 47 48 47 46 48 47 48 46 46 46 45 44 44 44 43
35 36 37 37 36 37 40 42 42 42 43 44 43 44 44 44 43 46 48 48 50 49 51 51 49 50 48 47 47 49 48 48 46
37 38 38 39 39 42 43 44 43 44 44 45 48 47 44 43 44 47 50 51 52 53 54 53 52 53 53 50 49 49 50 50 51
40 40 40 42 42 42 43 44 44 45 46 46 47 46 46 45 46 49 48 50 51 53 55 56 56 56 54 55 51 51 52 49 52
42 42 43 44 45 45 44 45 45 46 44 44 46 47 48 50 46 46 50 53 55 56 58 58 60 58 60 56 56 51 50 56 46
43 43 45 47 48 47 46 46 48 44 44 44 45 48 48 46 49 48 50 55 58 59 60 62 60 61 67 56 55 58 54 48 50

GFSFLT1_500_spd_072.txt.gz
Wind_Speed
12 12 11 11 11 12 12 13 14 14 15 16 16 16 17 17 17 17 18 18 18 18 18 17 18 18 18 17 17 17 17 17 18
14 13 12 12 12 13 13 13 14 14 15 16 17 17 18 18 19 19 20 20 19 19 18 18 18 18 18 18 18 16 17 17 18
14 14 14 14 14 14 14 15 15 16 16 15 16 17 18 20 20 21 22 22 22 21 20 20 19 19 18 19 18 18 18 19 19
15 15 15 15 15 15 15 15 16 17 17 17 17 18 19 20 21 22 21 22 23 23 23 22 21 20 20 19 19 19 19 19 20
17 16 15 16 15 16 15 15 17 18 19 19 20 21 21 23 24 24 23 22 23 24 24 24 24 23 22 21 21 20 20 20 20
18 18 18 17 17 18 18 17 19 20 21 21 22 22 23 24 25 26 26 27 26 26 26 26 26 26 25 24 22 22 22 21 21
17 17 19 20 21 20 20 20 21 22 22 23 23 24 25 26 27 28 28 29 29 29 29 29 28 27 27 26 25 25 24 24 23
17 17 19 19 20 20 21 22 23 24 24 24 26 25 26 27 28 29 29 30 31 31 32 32 32 30 29 28 28 27 26 26 26
19 19 20 20 21 20 22 23 23 24 25 26 27 27 27 28 29 30 30 31 32 33 34 35 35 33 32 31 31 30 29 28 28
21 21 22 23 23 23 24 24 25 27 27 28 28 29 29 30 31 32 33 34 35 36 38 37 37 37 36 35 34 33 33 32 31
23 23 25 25 25 26 27 26 27 28 29 30 31 32 32 33 34 34 36 37 38 39 39 39 39 38 39 39 38 38 36 35 34
26 26 27 28 28 29 29 29 30 30 31 33 34 35 36 37 37 38 38 39 39 40 40 40 39 40 40 40 41 40 40 39 37
28 29 30 31 31 31 31 32 33 33 33 34 36 37 38 38 39 39 40 41 41 42 41 42 43 42 42 42 39 41 42 42 41
30 30 32 33 33 33 35 35 36 36 36 38 39 40 40 40 40 41 42 43 43 43 42 42 40 43 44 44 44 43 43 44 44
31 32 35 36 37 36 37 37 38 39 41 42 41 41 42 41 41 43 43 43 42 42 44 44 44 45 46 46 47 46 44 45 47
34 35 38 38 38 39 37 39 41 43 44 45 44 43 43 43 44 43 42 42 43 44 44 45 46 47 47 47 48 49 49 48 48
38 39 40 41 41 41 41 41 43 44 45 46 46 44 42 43 43 43 43 44 45 44 45 48 50 52 52 52 51 51 50 50 49
41 41 42 42 44 43 43 43 44 45 46 46 46 46 44 44 43 43 44 43 43 45 48 50 53 56 55 52 51 52 53 54 52
42 41 43 46 46 44 44 45 45 47 46 45 46 46 45 45 44 45 42 40 43 46 49 52 56 57 53 51 54 55 54 57 56
45 45 45 45 43 44 46 47 47 47 45 45 43 43 43 44 44 39 38 41 45 47 50 52 55 52 53 55 58 56 60 61 64

GFSFLT1_500_spd_075.txt.gz
Wind_Speed
8 9 9 9 10 11 11 12 12 13 13 14 14 14 14 15 16 16 17 19 19 20 20 20 20 19 18 18 18 18 18 18 18
9 10 10 11 12 12 12 13 14 14 14 15 15 16 16 17 18 19 20 20 21 22 21 21 22 22 21 20 19 19 18 18 18
10 12 12 12 12 13 14 14 14 14 15 16 17 18 18 19 19 21 21 22 23 23 23 23 23 23 22 21 21 20 19 19 19
12 13 13 12 13 14 15 15 16 15 16 17 18 19 21 21 21 21 22 23 24 25 25 25 25 25 24 24 24 22 21 20 20
14 14 13 14 14 15 16 17 17 18 18 19 19 21 22 23 23 23 22 23 24 24 25 26 27 27 27 27 26 26 24 23 22
15 16 16 16 15 16 16 17 18 19 20 21 21 22 23 24 25 24 24 24 24 25 26 28 28 29 29 29 28 28 27 26 25
15 15 15 16 17 17 18 18 19 21 22 22 23 24 25 25 26 25 25 26 27 27 29 30 30 30 30 30 30 29 29 28 28
15 15 16 16 17 17 18 20 21 21 22 23 24 26 27 28 28 28 27 28 29 30 31 31 31 32 33 32 31 31 31 31 30
17 17 18 18 19 19 21 22 23 23 23 24 25 26 27 28 29 29 29 30 31 32 33 34 34 34 34 34 33 32 32 33 34
20 20 20 21 21 22 23 25 25 25 26 26 27 28 28 30 31 31 32 33 34 35 35 36 37 36 36 34 33 34 35 35 35
22 22 23 23 24 25 26 27 27 28 29 30 30 31 31 33 33 34 34 34 35 36 36 38 38 38 36 35 36 36 36 36 36
25 25 26 25 25 28 29 29 30 31 32 33 33 32 33 36 37 36 37 37 37 38 40 40 40 39 38 37 35 35 36 36 38
27 28 29 28 28 30 32 32 33 34 35 35 35 35 38 39 40 39 39 40 40 42 42 40 39 37 38 39 39 38 38 39 39
30 31 31 31 32 33 34 35 36 36 36 38 37 39 41 41 40 41 41 41 43 41 40 40 40 42 41 39 39 39 38 40 41
33 33 33 35 35 36 37 37 38 38 38 40 40 41 42 42 41 41 41 42 40 39 40 41 42 41 39 40 40 41 41 41 43
36 35 36 38 39 39 40 40 41 41 41 42 42 42 43 43 44 43 41 39 39 39 43 44 40 41 42 43 44 46 47 47 44
40 39 39 40 41 42 43 43 44 45 43 43 43 42 43 42 42 41 40 39 40 43 42 40 41 43 44 46 48 49 49 45 43
43 42 42 42 43 44 45 47 49 47 43 44 45 46 43 41 40 39 38 38 39 40 38 39 42 44 46 49 50 50 48 47 46
46 45 45 45 45 45 47 49 48 45 42 45 47 45 42 42 41 39 37 38 36 36 39 41 43 45 47 50 50 49 49 49 52
48 47 47 46 49 53 51 49 44 43 44 47 46 43 43 41 40 37 37 35 33 37 41 44 44 46 49 47 48 47 49 49 52

GFSFLT1_500_spd_078.txt.gz
Wind_Speed
5 7 8 8 8 8 9 9 11 11 12 13 13 14 16 17 18 19 20 20 21 21 21 22 21 22 22 22 22 22 22 21 20
6 7 8 9 9 9 10 11 12 12 13 14 14 15 16 17 19 20 21 22 21 21 21 22 23 24 24 24 23 22 22 22 22
6 8 9 10 10 11 12 12 13 14 14 15 16 17 18 19 20 21 22 23 23 23 23 23 23 24 24 25 25 25 25 24 23
7 9 10 10 10 11 13 13 14 15 16 17 18 18 18 19 20 21 23 24 24 24 25 25 26 25 25 24 25 25 25 25 25
9 9 10 11 11 12 13 14 15 17 18 19 20 20 20 20 22 23 24 25 25 25 26 27 27 27 27 27 26 26 26 26 26
12 11 11 11 12 13 14 16 17 18 20 21 21 21 21 22 24 24 25 26 26 27 28 29 28 28 29 29 29 29 28 28 28
13 12 12 13 13 14 15 17 19 21 22 24 24 24 24 25 26 27 28 30 30 29 30 30 30 31 31 30 30 31 31 30 30
14 14 14 14 15 15 16 18 20 21 23 25 26 26 26 28 29 29 31 31 32 33 33 33 33 32 31 31 31 32 32 30 30
16 16 16 16 17 18 19 20 21 23 25 26 27 28 28 30 30 31 33 33 33 34 35 35 34 33 34 34 34 34 31 31 31
19 19 18 18 19 21 22 23 24 25 27 29 29 30 30 32 32 32 35 35 35 36 36 36 35 35 35 36 35 33 33 32 32
22 22 21 20 22 23 24 25 27 29 30 31 32 33 33 34 33 35 37 37 37 37 37 36 36 37 36 34 33 32 34 33 33
25 24 24 23 24 25 27 28 30 32 33 34 34 35 35 36 36 38 39 39 39 38 38 38 37 36 35 34 33 34 34 32 33
27 27 28 27 28 28 29 31 33 35 35 36 37 37 38 38 39 40 41 41 41 39 39 39 37 36 34 35 35 33 31 34 35
31 31 32 31 31 31 32 34 35 37 38 38 38 40 40 40 40 41 42 41 41 41 41 40 38 37 37 36 32 34 35 36 38
33 33 34 34 34 34 35 36 38 39 40 41 41 42 42 42 42 42 44 43 42 42 42 39 37 38 36 32 34 38 39 41 40
35 35 36 37 37 38 38 39 41 42 43 43 44 45 43 41 43 44 46 46 42 41 39 39 40 38 36 36 38 41 42 42 44
38 38 39 39 40 41 42 43 44 45 46 46 48 47 42 42 44 46 45 44 42 40 39 40 38 36 36 38 41 42 43 44 43
42 42 43 43 43 43 44 45 46 47 47 52 50 48 42 42 44 43 43 40 38 38 39 39 36 36 39 41 41 43 45 43 40
45 46 46 46 46 46 46 46 48 49 53 48 49 45 44 46 45 43 41 40 37 38 38 37 36 40 40 41 43 45 44 41 41
49 50 50 49 48 49 47 48 50 55 50 49 44 43 45 45 45 43 41 39 37 38 38 37 38 39 40 42 45 44 41 41 42

GFSFLT1_500_spd_081.txt.gz
Wind_Speed
5 5 5 6 6 6 7 8 9 9 10 11 13 13 14 15 16 17 19 20 21 22 23 22 23 24 24 24 24 23 23 23 24
6 5 6 7 7 7 8 9 10 10 10 12 14 15 16 17 18 18 19 21 22 24 24 24 24 24 25 25 25 24 23 23 22
6 6 7 7 7 7 8 9 10 11 12 14 16 17 17 18 18 19 22 23 24 24 24 24 25 26 26 26 26 26 25 24 24
7 7 8 8 9 9 9 10 11 12 14 15 17 18 19 19 19 21 24 25 25 26 26 27 28 28 27 28 28 27 27 26 26
7 8 8 9 10 10 11 11 13 14 15 18 19 20 21 21 22 24 26 27 27 29 29 29 29 28 28 30 30 29 28 27 27
9 9 10 9 10 12 13 15 16 17 18 19 21 22 23 25 25 27 28 28 29 30 31 31 31 30 31 31 30 29 28 27 27
11 11 11 11 12 14 15 17 18 20 20 22 24 25 26 27 28 28 29 29 31 32 32 32 32 32 33 31 30 30 30 30 28
13 13 13 13 13 15 16 17 19 20 22 23 25 27 29 30 31 31 31 31 32 34 35 34 34 33 33 32 32 32 32 29 28
15 15 15 14 15 16 17 18 20 22 23 25 27 28 30 32 33 33 33 33 34 36 35 36 35 34 34 33 34 32 30 30 29
17 17 17 17 17 18 19 20 22 23 25 26 29 30 32 34 35 34 35 35 37 39 38 36 35 35 35 35 32 31 31 30 31
20 20 20 20 21 22 22 23 24 25 27 29 31 32 33 35 35 36 37 38 38 39 38 38 37 36 36 34 32 32 32 32 30
23 23 22 23 24 25 25 26 27 28 30 32 33 34 35 36 37 38 40 39 39 39 40 41 39 36 35 33 32 33 33 30 28
25 26 26 26 27 27 27 28 29 31 33 34 36 37 38 39 40 41 42 40 39 39 43 43 39 37 34 34 34 34 29 29 31
28 29 29 29 29 29 30 31 32 33 36 37 39 40 40 41 43 43 43 41 41 42 45 42 41 39 37 36 34 31 30 31 33
31 32 33 32 31 32 32 33 35 36 38 39 40 42 42 42 45 45 43 41 43 44 44 44 42 40 37 35 33 31 32 35 38
35 35 35 35 35 35 36 37 38 39 40 40 42 44 42 46 47 45 42 43 45 46 47 45 43 39 37 36 34 33 35 38 38
38 39 38 38 38 38 39 40 42 42 42 45 46 47 46 49 44 40 41 44 46 47 47 45 42 38 37 35 35 37 37 38 39
42 42 42 41 41 42 43 44 44 43 46 47 48 51 53 48 44 38 41 44 46 45 46 44 40 38 37 35 36 38 39 40 41
45 45 44 44 45 46 47 48 47 48 49 48 49 53 51 45 41 39 43 45 46 45 44 42 39 38 36 36 38 40 41 42 41
47 47 47 48 48 50 51 51 49 49 51 50 52 48 46 41 41 42 45 46 45 45 43 42 40 37 36 38 40 42 42 42 41

GFSFLT1_500_spd_084.txt.gz
Wind_Speed
3 4 4 4 4 5 6 6 6 8 8 10 11 12 13 14 15 16 17 19 22 22 23 23 23 24 25 25 24 25 26 25 25
4 4 3 4 4 5 6 7 8 8 10 11 13 14 15 16 17 17 18 22 23 23 25 26 25 25 26 25 25 26 27 27 26
3 3 3 4 5 6 7 8 9 10 11 13 14 16 17 18 18 18 20 23 23 23 25 27 27 26 26 26 27 28 28 27 27
4 4 4 4 5 6 8 9 10 11 12 13 15 16 18 20 21 22 23 25 25 24 26 28 28 27 26 27 28 28 27 26 25
4 5 5 5 5 6 8 9 11 12 13 14 16 18 20 22 23 24 26 27 27 26 27 29 30 30 29 28 29 28 27 27 26
6 6 6 7 8 8 9 10 12 14 15 16 18 20 21 23 24 26 28 29 29 29 29 30 31 30 29 30 30 29 29 29 27
8 9 9 8 9 10 11 13 14 15 16 17 19 21 22 24 25 28 29 31 31 32 31 32 32 31 31 32 32 30 30 28 26
11 10 11 10 11 12 13 14 16 17 18 19 21 22 24 26 28 29 31 31 32 33 33 33 32 32 33 34 34 32 31 28 27
13 13 12 12 12 13 14 16 17 19 19 20 22 25 26 28 29 31 32 34 34 35 35 34 34 34 35 35 34 32 30 29 28
15 15 14 14 14 15 16 17 18 20 21 22 24 26 28 30 31 32 33 35 36 37 36 34 33 35 36 36 33 31 30 30 31
18 17 17 17 17 18 18 19 20 21 23 23 25 28 30 31 33 34 35 36 40 38 37 35 35 36 37 37 35 33 32 32 32
20 20 20 20 20 20 21 21 22 23 24 26 27 29 31 33 35 36 36 37 40 40 39 35 36 39 39 37 35 33 33 33 32
24 23 22 22 22 23 23 24 24 26 27 28 29 31 32 34 36 39 38 40 42 39 37 36 38 40 39 36 35 34 32 33 30
26 26 26 26 26 26 27 27 27 28 29 30 31 33 34 35 38 39 41 45 41 39 37 37 39 41 40 37 35 33 33 32 30
29 30 30 29 29 29 30 29 31 31 32 33 34 35 33 40 39 41 45 47 44 41 37 40 40 42 40 39 35 33 33 31 32
33 33 33 33 33 33 33 33 33 34 35 36 37 37 41 43 41 43 46 44 41 40 38 42 43 42 40 38 35 34 33 32 34
35 35 36 36 36 35 36 36 36 37 38 41 41 39 42 43 45 47 44 40 38 40 40 44 45 43 41 37 34 35 34 33 35
38 38 37 38 39 39 39 40 40 40 41 43 45 45 47 45 46 46 43 40 39 41 43 46 44 42 41 36 35 35 33 35 37
39 39 40 40 40 41 42 43 44 46 46 47 48 46 48 47 47 44 41 40 41 45 47 46 45 42 39 37 36 35 35 35 38
43 43 43 43 43 44 46 48 51 51 51 51 49 48 48 47 45 42 40 41 43 47 47 46 44 41 39 38 36 35 36 37 39

GFSFLT1_500_spd_087.txt.gz
Wind_Speed
4 2 2 2 1 2 2 3 5 6 7 8 9 11 12 13 14 14 15 18 19 19 20 22 24 24 23 22 21 23 25 25 25
3 2 2 1 1 1 3 4 6 7 8 9 10 12 12 14 14 15 17 19 20 20 20 22 24 25 24 23 23 25 26 26 26
3 2 2 1 1 2 3 5 6 7 8 9 10 11 13 14 16 17 18 19 20 22 23 23 24 25 25 24 24 25 27 28 27
3 3 2 2 2 2 4 4 5 6 8 9 10 11 13 15 16 18 21 22 23 24 24 24 25 26 26 26 25 27 28 28 26
5 4 2 2 2 2 3 4 6 7 9 10 11 13 14 16 17 20 22 24 26 26 26 27 27 27 27 27 27 29 29 28 27
7 6 4 3 4 4 4 6 7 8 10 11 12 14 16 18 19 21 23 24 26 26 28 28 28 27 27 27 30 31 31 29 28
8 7 6 5 6 6 6 7 8 9 11 11 12 14 17 18 20 22 24 25 26 27 28 30 29 28 27 29 31 32 31 29 28
10 9 8 8 8 8 8 9 10 11 13 13 14 16 18 20 22 23 25 27 27 29 31 31 30 28 28 30 33 33 32 30 29
13 12 10 10 10 10 10 11 12 12 14 15 16 18 20 21 23 25 27 29 29 30 32 33 33 30 29 31 34 34 32 30 29
16 15 14 13 13 13 13 13 14 16 16 17 17 19 22 23 25 27 29 32 31 31 34 36 33 30 30 33 35 35 33 31 31
18 16 16 16 16 15 15 15 16 17 18 18 19 22 23 24 26 27 31 35 33 34 38 37 35 32 31 33 35 35 33 32 30
21 20 19 19 19 18 18 18 19 19 19 20 21 23 24 26 27 28 35 33 35 35 40 39 37 33 33 34 36 34 33 32 31
24 23 23 22 21 21 21 21 21 21 21 22 23 25 27 28 30 31 38 34 35 36 39 38 38 35 34 36 37 35 32 30 32
27 27 25 23 22 24 24 24 24 24 24 25 26 27 28 31 32 33 37 36 36 40 39 34 33 33 35 37 38 36 35 33 32
30 30 29 26 26 27 27 26 26 27 27 27 29 30 32 33 34 36 37 38 39 40 40 35 36 34 37 40 40 36 35 34 34
33 32 31 31 30 30 29 29 29 29 31 30 32 32 36 37 40 38 39 39 39 39 38 36 37 37 39 41 39 37 34 32 33
34 33 34 33 32 32 32 32 32 32 33 35 35 35 37 40 41 41 41 42 40 37 36 35 38 39 41 41 40 37 35 33 33
38 37 34 33 34 34 34 34 34 34 35 38 41 43 41 42 42 42 42 41 40 37 35 37 38 42 43 41 38 35 35 34 33
42 40 37 36 35 36 37 37 37 39 42 44 46 46 46 46 43 43 43 42 38 37 37 38 40 42 42 40 38 35 34 34 33
32 38 42 38 40 40 41 43 46 46 48 48 47 47 47 46 43 43 43 40 39 38 38 39 43 43 42 38 36 34 33 32 34

GFSFLT1_500_spd_090.txt.gz
Wind_Speed
6 5 5 4 3 3 2 1 2 2 4 5 5 6 8 9 10 11 13 14 15 16 17 18 19 21 23 23 23 22 23 25 26
7 6 5 4 3 3 2 1 2 3 4 5 6 7 8 9 10 12 13 14 16 18 19 19 20 21 23 23 24 23 25 27 27
7 5 4 4 3 3 2 1 2 3 4 5 6 6 8 9 10 12 14 16 18 20 20 21 21 22 23 23 23 24 27 27 29
8 6 5 5 4 3 2 0 1 2 3 4 5 7 8 9 11 13 15 17 19 21 21 22 22 23 23 23 23 25 27 29 29
9 8 7 6 5 4 3 2 2 2 3 5 5 7 9 10 12 14 16 18 20 22 23 23 24 24 24 24 24 25 29 29 30
11 9 8 7 6 6 5 4 4 4 5 6 6 9 11 12 13 16 18 20 22 23 25 25 26 25 25 25 25 26 30 29 30
14 12 10 9 8 7 7 6 6 6 7 7 8 10 12 14 15 17 19 21 23 24 25 27 28 28 27 26 26 28 31 30 31
16 14 12 11 10 9 10 9 9 9 9 10 10 11 13 15 17 18 20 22 26 28 28 28 30 30 29 28 27 29 31 32 32
18 16 14 13 12 12 12 12 10 11 11 12 13 13 14 16 18 20 22 23 28 30 29 29 31 30 30 29 29 30 32 33 33
20 18 16 15 15 15 14 14 13 13 14 14 14 16 17 18 19 22 24 25 31 31 31 31 32 31 32 31 29 31 33 35 35
21 20 20 18 18 18 17 17 17 17 16 16 17 18 19 20 22 24 26 27 33 33 31 31 34 32 31 29 29 32 34 36 36
24 23 22 21 19 19 18 18 18 19 18 18 19 20 21 23 24 26 28 30 34 33 33 34 36 34 30 29 30 34 37 40 38
28 27 25 25 23 22 21 20 20 20 20 20 21 22 23 26 27 28 29 31 34 35 34 35 34 33 33 33 33 36 38 38 39
31 30 29 28 26 25 25 23 23 23 22 23 23 24 25 27 29 31 32 34 35 36 36 35 34 31 32 32 33 36 39 38 37
34 34 33 30 29 28 28 28 26 25 25 24 25 26 28 30 31 34 36 37 37 38 37 37 35 33 32 33 34 38 38 38 37
37 36 34 33 32 32 31 31 30 28 28 27 28 28 30 34 35 38 38 39 38 36 37 37 34 33 34 33 36 39 39 38 36
40 38 36 37 36 36 35 34 33 32 32 33 32 30 31 36 40 41 41 41 40 38 38 35 33 34 34 34 37 39 40 39 35
37 38 38 38 38 38 37 36 35 34 33 35 36 36 36 40 42 42 41 42 40 39 38 34 33 34 35 36 39 40 40 38 35
35 42 43 44 39 37 40 39 37 35 35 38 42 45 48 49 46 43 45 44 41 40 37 35 34 34 36 38 41 41 39 36 32
29 28 30 31 33 43 45 38 40 43 46 45 45 49 51 49 50 49 46 44 41 39 36 34 33 35 36 39 42 40 36 34 32

GFSFLT1_500_spd_093.txt.gz
Wind_Speed
7 7 8 7 6 4 3 2 1 0 1 1 3 3 4 6 8 8 10 11 13 15 17 19 20 20 21 22 22 22 22 24 25
8 8 8 7 6 4 3 2 2 1 1 2 3 4 5 7 8 9 10 12 15 17 19 19 20 21 21 21 22 23 23 25 26
9 8 9 7 6 5 4 3 3 2 1 1 2 4 5 6 8 9 12 13 15 18 19 20 21 22 22 22 22 23 24 26 26
10 10 9 7 7 5 5 4 4 2 2 4 4 4 6 7 9 10 13 15 16 19 20 21 22 23 23 22 23 23 24 26 27
12 12 10 9 8 6 6 5 5 5 4 5 7 6 7 9 10 11 13 15 17 20 22 22 24 25 25 24 24 23 24 26 28
14 13 11 10 9 9 9 8 7 6 7 7 7 8 9 10 11 12 14 16 18 21 24 25 26 27 28 26 25 24 25 27 29
15 15 13 12 12 11 11 10 9 8 8 9 9 11 11 12 13 14 15 17 19 22 25 27 28 28 29 28 26 25 26 27 29
17 16 15 15 13 13 13 13 12 11 11 11 12 12 13 14 14 15 17 19 21 25 28 29 30 30 30 30 28 27 26 29 31
18 18 17 17 15 14 15 16 15 15 14 14 15 15 14 16 17 18 19 20 22 25 29 30 30 30 32 31 30 27 26 28 31
18 19 19 19 18 16 17 17 18 18 17 17 17 17 17 17 19 20 21 23 25 27 29 30 30 32 33 32 30 29 26 28 30
20 21 20 20 20 19 19 19 19 20 20 20 19 19 19 19 20 21 23 25 27 29 32 32 33 35 35 33 31 29 29 31 33
22 24 22 21 22 22 22 22 21 21 21 21 22 22 22 22 23 23 24 26 28 32 34 34 36 37 38 36 32 31 30 33 36
25 26 26 26 26 26 24 25 24 23 24 24 24 24 24 25 26 26 27 28 31 34 36 36 37 38 39 37 33 32 33 33 37
26 29 30 31 29 29 27 27 27 28 27 27 26 25 26 27 28 29 31 32 33 36 38 38 38 37 36 35 32 31 31 34 37
29 31 32 34 33 34 33 33 32 32 31 31 29 28 29 30 31 32 34 35 37 40 41 40 39 38 38 35 32 31 33 35 37
33 35 36 36 37 37 37 37 37 35 35 33 32 30 32 33 34 34 35 38 41 42 42 41 40 38 36 35 33 33 34 36 38
37 39 40 39 38 39 39 41 40 36 37 36 34 32 31 34 35 36 40 44 46 45 45 44 41 40 36 35 33 34 35 37 38
40 42 45 46 44 39 40 42 41 38 37 39 41 37 34 35 37 40 43 46 48 48 50 48 42 39 36 34 33 35 37 38 40
41 39 37 35 38 40 42 42 41 39 39 41 42 40 39 42 44 46 49 52 54 51 50 45 40 36 33 33 34 36 38 40 40
49 47 35 30 26 32 36 40 43 42 44 45 45 48 50 49 46 48 55 60 56 55 48 42 38 34 32 33 34 38 39 40 41

GFSFLT1_500_spd_096.txt.gz
Wind_Speed
6 6 6 7 7 6 6 4 3 2 2 2 1 1 3 6 7 8 9 10 13 16 18 18 19 20 20 21 20 21 22 22 23
6 6 7 6 6 6 6 4 3 2 3 2 1 3 4 6 7 8 9 11 14 16 19 19 19 20 21 22 22 22 22 22 23
8 7 7 6 5 6 5 4 4 4 3 3 4 4 5 7 7 9 10 12 14 16 18 20 21 21 23 23 24 24 23 23 24
9 8 8 6 6 6 6 6 5 6 5 5 6 7 7 8 8 9 10 12 14 16 18 21 22 24 25 26 27 25 24 23 24
10 9 9 8 7 7 7 7 7 8 8 8 8 8 9 9 9 10 12 13 14 16 19 22 24 26 27 29 29 26 24 23 24
12 12 11 10 9 8 8 8 9 9 9 11 11 10 11 12 12 12 13 13 15 17 20 24 26 27 29 30 30 28 28 26 25
14 14 13 12 11 10 10 10 10 11 11 11 13 14 14 14 14 14 14 15 16 18 21 24 26 27 28 29 30 29 29 27 26
16 16 16 14 14 13 13 13 13 13 13 14 14 16 16 16 16 16 16 17 19 20 22 25 27 29 30 30 31 31 29 27 26
18 17 17 16 15 15 15 15 15 15 16 16 17 17 18 18 19 19 18 18 20 22 24 26 29 32 33 32 32 32 30 27 27
19 19 18 18 17 17 17 17 18 18 18 18 19 19 20 21 22 22 20 21 22 24 26 27 31 33 36 36 35 35 32 30 30
22 21 20 20 20 19 19 19 19 20 20 20 21 22 23 23 24 24 23 23 25 27 28 29 33 36 38 39 38 36 35 33 31
23 23 23 23 21 21 21 21 21 22 22 24 24 25 26 26 26 25 26 26 28 30 31 32 36 40 41 42 40 37 34 31 31
24 24 24 25 25 24 24 25 26 27 26 26 26 27 28 29 29 28 29 29 31 31 32 33 36 39 41 42 41 38 36 33 31
24 25 27 27 27 27 28 30 30 31 31 30 29 29 30 30 31 31 31 31 32 34 34 35 37 39 41 42 42 38 34 32 31
25 27 28 29 30 31 32 33 34 34 35 35 34 32 33 32 34 34 34 34 34 34 35 39 41 41 44 45 44 39 35 32 32
30 29 30 33 34 34 36 37 37 38 39 39 37 35 35 35 36 36 36 37 37 37 38 41 45 48 49 47 42 39 34 32 32
36 33 33 36 40 40 41 42 41 41 41 40 37 34 36 37 38 38 37 40 40 40 42 46 49 52 49 47 41 39 34 31 30
36 37 37 39 40 42 48 50 49 44 42 42 39 37 36 38 38 39 41 41 42 45 49 51 53 54 50 44 39 36 35 31 33
37 39 42 41 37 33 38 37 46 51 50 43 43 40 39 40 38 39 43 47 47 46 50 55 57 50 43 40 38 35 33 30 34
37 41 36 40 42 37 32 33 39 42 39 35 38 41 42 39 37 41 43 43 47 52 52 56 46 41 39 38 36 33 30 32 33

GFSFLT1_500_spd_099.txt.gz
Wind_Speed
7 5 5 4 4 3 2 2 1 1 1 2 1 2 3 5 7 7 9 10 11 13 15 16 18 19 20 21 22 23 23 24 23
9 7 6 5 4 4 3 3 3 3 3 3 2 3 5 7 8 8 9 11 12 14 15 17 19 20 22 23 24 25 26 25 24
10 8 7 6 5 5 5 4 4 5 4 4 4 4 6 9 9 10 10 12 13 14 15 18 20 22 24 25 26 27 27 27 25
11 10 9 8 7 6 6 6 6 6 5 5 5 6 7 9 11 11 12 12 13 14 15 17 20 22 24 25 27 29 29 28 27
13 12 11 10 9 8 8 8 8 8 7 6 6 8 9 10 11 11 12 13 14 15 16 19 21 22 24 26 28 29 30 29 28
15 14 13 12 11 10 10 10 10 10 9 9 9 10 10 12 13 13 14 15 16 17 18 20 22 24 25 27 29 30 30 30 30
17 16 15 14 13 12 12 12 11 11 11 11 11 12 13 14 14 16 16 17 18 19 21 23 24 25 26 27 30 31 33 34 33
20 18 17 17 14 13 14 14 13 13 14 14 14 14 15 16 16 17 18 19 20 20 21 24 25 27 28 29 30 33 35 35 35
21 20 19 19 17 17 17 16 16 16 16 16 17 17 18 19 19 19 20 21 22 23 24 26 27 29 30 30 32 32 34 35 34
23 22 21 22 21 19 19 19 19 19 19 19 19 20 21 22 21 22 22 23 23 24 25 27 29 30 32 33 34 36 37 37 35
25 24 24 24 23 22 21 21 22 22 22 22 22 23 23 24 25 25 25 26 25 26 28 29 32 31 32 32 33 35 39 40 37
25 25 25 26 26 26 25 24 25 24 24 25 25 26 27 28 28 28 27 27 28 28 28 31 33 34 33 32 37 40 41 41 39
27 25 27 25 27 26 26 27 27 28 28 27 29 30 31 31 31 30 29 31 30 31 32 33 34 33 35 38 40 45 48 41 38
28 27 26 28 28 29 29 30 30 31 31 31 32 33 34 35 32 32 31 31 33 34 35 35 34 34 36 40 45 49 51 44 37
32 30 30 30 29 28 28 29 32 34 34 36 38 37 36 35 34 34 33 35 35 36 36 37 36 35 39 43 44 50 48 41 36
36 33 33 32 32 33 31 31 34 37 39 40 41 40 38 37 36 36 37 37 38 37 37 38 37 40 44 44 51 54 49 41 34
36 37 38 39 39 39 37 35 37 41 46 47 46 42 41 41 40 39 39 39 40 39 39 40 40 44 45 49 52 55 46 40 34
34 31 34 33 34 37 41 41 35 28 35 45 46 48 43 42 41 42 41 40 41 43 42 45 46 45 48 51 53 43 41 37 34
40 35 33 36 35 35 37 31 33 35 35 38 39 40 44 45 42 44 40 42 46 45 43 42 46 50 53 50 44 39 37 35 32
40 36 36 38 42 40 41 36 35 36 34 36 39 41 39 38 37 33 34 33 37 44 46 48 50 48 49 43 38 36 35 34 32

GFSFLT1_500_spd_102.txt.gz
Wind_Speed
12 9 8 6 5 3 4 4 4 5 5 5 4 3 1 4 6 8 9 11 12 13 13 14 17 18 20 21 22 23 25 26 27
13 11 9 8 7 6 6 6 6 6 6 5 5 3 3 4 7 9 10 11 12 13 13 15 18 19 20 21 22 23 25 26 26
15 14 12 10 9 8 8 8 7 7 7 6 5 5 5 5 7 9 10 11 13 13 14 15 17 19 20 21 23 24 26 27 29
18 16 14 11 11 10 10 9 9 9 9 8 7 6 6 7 9 10 12 13 14 15 15 16 18 20 21 23 25 26 27 29 30
20 17 15 13 12 12 11 11 11 11 10 10 9 8 8 9 10 11 13 14 16 16 17 17 19 20 22 23 24 26 27 29 31
21 19 17 15 13 13 12 13 12 12 11 11 10 10 10 11 12 14 15 16 17 18 19 20 20 22 22 24 26 27 28 31 33
23 21 19 17 15 15 14 15 15 14 14 13 13 13 13 13 14 15 16 18 19 21 22 22 23 23 24 25 26 28 29 31 33
24 23 20 18 17 17 17 17 18 17 17 16 16 16 16 17 17 17 18 20 21 22 24 24 24 26 26 27 28 28 29 29 32
25 24 23 20 19 19 19 18 19 20 20 19 19 19 19 19 20 20 21 21 23 24 25 26 26 27 28 29 29 29 28 32 36
26 24 24 21 21 21 22 21 22 22 22 22 22 22 22 22 22 22 24 25 25 26 27 28 28 30 30 33 32 31 32 35 39
29 26 25 23 23 24 25 24 25 25 25 25 25 25 25 26 25 25 26 28 28 28 28 29 32 32 33 34 35 33 35 38 40
30 29 28 26 28 27 27 28 28 27 28 27 29 29 29 29 28 29 29 30 29 29 31 32 34 35 36 37 36 37 37 38 41
32 32 30 31 29 29 29 30 29 29 30 31 33 33 32 32 32 33 33 31 31 31 32 33 34 36 38 37 36 38 40 42 45
36 31 36 32 32 31 30 28 27 30 31 33 36 37 36 35 35 35 35 35 34 35 34 34 35 36 38 39 38 39 43 43 47
33 35 33 31 31 30 32 33 33 33 34 35 36 36 37 39 38 38 37 36 38 38 37 37 36 37 37 38 39 42 44 45 48
38 37 32 31 32 33 32 34 36 36 36 37 38 38 39 42 42 41 39 39 39 41 39 39 39 39 37 38 41 42 43 48 48
38 37 35 34 38 41 42 42 43 42 40 40 42 42 43 45 47 47 45 44 41 41 41 39 39 40 40 43 41 43 46 47 43
36 37 40 39 40 41 42 40 43 40 40 45 45 38 36 38 40 42 43 46 44 45 42 43 42 46 43 43 46 48 46 42 39
39 36 39 35 35 39 40 41 42 40 36 37 36 40 38 38 38 42 44 42 44 44 44 45 39 41 47 50 50 48 44 39 36
42 45 35 43 39 39 45 49 44 40 44 38 38 36 37 40 38 39 42 44 41 36 36 40 43 48 48 48 46 44 41 37 35

GFSFLT1_500_spd_105.txt.gz
Wind_Speed
14 13 12 9 8 8 6 6 5 5 5 5 5 4 2 3 4 5 8 9 10 12 12 12 14 16 17 19 20 20 21 23 25
17 16 13 12 10 10 8 7 7 7 7 7 6 4 3 4 6 8 9 10 11 12 12 13 15 17 18 19 20 21 21 23 25
19 18 15 13 12 11 10 9 9 8 8 8 7 6 5 6 7 8 9 10 12 13 14 14 15 17 18 19 21 22 22 24 27
21 19 18 15 14 13 12 10 10 9 9 9 9 8 8 8 9 10 11 12 14 14 15 15 16 18 19 20 21 22 24 26 28
23 21 19 17 16 14 13 12 11 11 11 11 10 10 10 10 10 12 12 14 15 16 17 17 18 19 21 22 23 25 27 28 28
24 23 21 19 18 16 15 14 13 13 13 13 13 13 12 12 12 14 15 15 17 17 18 19 20 21 23 24 25 27 28 29 28
26 25 23 22 20 18 17 15 14 15 15 15 15 15 15 15 15 16 17 18 19 19 20 20 22 23 25 26 27 28 29 30 31
28 27 25 22 21 19 18 17 16 17 18 17 17 17 18 18 18 19 19 20 21 22 23 22 24 25 27 28 29 30 30 30 32
29 27 26 25 23 21 21 20 18 18 20 20 20 21 21 21 21 22 22 22 23 24 25 25 25 26 27 29 29 30 30 29 32
31 30 28 26 25 24 23 21 21 21 21 22 23 23 24 25 25 24 25 25 25 26 27 27 27 28 29 30 30 31 30 29 31
34 33 29 28 27 27 25 25 25 23 23 25 25 26 26 27 27 26 26 28 28 29 29 30 30 30 30 32 32 33 33 33 33
37 34 32 31 30 28 27 27 27 26 26 26 27 28 28 29 29 30 29 30 32 32 33 33 33 34 33 33 34 34 36 35 36
38 37 33 33 30 31 29 31 31 31 29 29 29 31 32 33 33 34 33 33 34 35 36 37 36 37 36 37 35 36 36 38 38
44 38 38 37 33 34 32 34 33 32 31 33 29 32 34 35 35 35 36 36 37 38 37 38 39 37 38 38 39 39 38 39 41
46 45 39 38 36 36 34 35 32 32 32 34 36 37 37 37 35 35 37 37 40 41 40 39 41 39 38 39 38 40 41 41 41
56 42 39 41 38 37 36 33 33 36 37 37 39 39 38 38 38 39 38 43 43 41 43 44 42 41 39 39 40 41 43 40 42
52 41 40 40 41 37 37 37 36 37 37 38 41 41 41 41 41 41 44 41 38 40 41 42 42 44 43 41 40 42 37 43 46
52 39 42 42 46 42 40 38 38 39 40 40 40 42 41 40 42 41 36 38 39 39 39 41 42 42 42 39 37 38 43 46 48
49 41 47 48 45 37 36 39 39 43 38 41 42 39 39 36 34 34 36 36 41 38 40 40 42 40 37 37 42 47 49 50 49
50 45 50 43 41 40 43 42 40 38 34 42 43 42 37 39 34 37 37 37 38 40 42 44 42 38 41 48 50 51 52 52 46

GFSFLT1_500_spd_108.txt.gz
Wind_Speed
16 14 13 12 10 8 8 7 6 6 6 6 6 5 3 1 3 5 7 8 9 10 11 11 12 13 14 16 18 19 19 20 23
20 17 16 14 13 10 10 9 8 8 7 7 7 5 4 3 4 5 7 8 9 10 11 12 12 14 15 17 19 19 20 21 23
21 19 18 17 15 12 11 10 10 9 9 9 9 7 5 4 5 7 8 9 10 11 12 13 13 14 16 18 19 20 22 23 23
22 20 19 18 16 14 13 11 10 11 11 11 10 9 7 6 7 8 9 10 11 12 14 14 15 16 18 19 21 21 22 23 24
23 21 20 19 17 16 14 13 12 13 13 13 12 11 10 9 9 9 11 12 13 14 15 15 17 18 19 20 21 23 24 24 25
25 23 22 21 19 18 16 15 14 14 15 14 13 12 12 11 12 12 13 14 15 16 17 18 18 20 20 22 22 23 25 25 26
26 25 23 22 21 20 18 17 16 15 16 16 15 14 14 14 15 14 16 16 17 17 18 19 19 22 23 23 24 25 25 26 27
28 26 25 24 23 22 21 19 19 18 17 18 18 17 17 17 18 18 18 19 20 20 21 22 21 23 25 26 26 26 28 29 29
30 28 27 26 26 25 24 22 20 20 19 20 21 20 21 19 20 20 21 22 22 23 23 24 25 24 27 27 27 28 30 30 31
31 29 29 29 28 28 26 24 23 22 21 23 23 22 23 22 22 24 23 24 25 26 26 28 29 29 30 32 32 31 31 31 32
33 31 32 32 32 30 29 27 25 25 25 25 26 25 25 25 26 25 26 27 27 28 29 30 32 32 33 34 33 34 35 34 35
35 35 36 35 33 33 32 30 27 28 28 27 28 28 28 27 29 28 28 30 29 30 31 32 35 36 36 37 35 36 36 36 36
38 39 39 38 36 35 35 30 30 31 29 30 32 30 30 29 31 31 31 31 32 32 33 35 36 37 39 38 38 36 36 38 37
41 42 42 40 39 38 34 31 34 34 31 34 34 33 33 31 33 34 34 32 34 32 33 37 40 39 41 39 39 40 38 41 41
45 44 43 42 41 36 34 37 39 35 35 34 34 35 35 34 37 39 36 34 35 35 34 40 39 37 39 42 41 41 41 40 41
48 47 46 45 44 46 45 38 38 39 37 34 35 37 36 36 37 38 38 37 38 37 39 39 36 35 36 35 38 39 40 40 39
52 50 53 49 49 51 46 40 39 39 37 35 39 38 40 36 39 40 39 41 43 43 37 35 34 36 36 37 38 38 38 36 36
54 53 52 55 59 52 37 41 42 44 38 38 38 38 38 36 36 37 35 36 34 33 34 34 33 33 35 35 38 36 34 35 40
59 54 57 56 51 49 42 44 29 26 36 39 35 40 40 40 40 38 36 36 32 33 35 36 36 34 35 37 38 37 35 38 43
48 48 46 39 49 45 43 46 46 42 42 37 33 32 39 43 43 41 42 25 26 23 26 28 32 37 39 41 39 41 45 47 52

GFSFLT1_500_spd_111.txt.gz
Wind_Speed
15 13 11 11 11 10 9 7 7 7 7 7 8 8 7 3 1 2 3 3 5 7 8 9 10 10 12 13 15 16 17 18 20
17 17 15 13 13 12 11 9 9 8 9 9 9 8 7 4 2 1 2 4 6 8 9 10 11 12 13 15 16 18 19 19 20
19 19 18 16 14 13 13 11 10 10 10 10 10 9 8 6 4 3 4 5 7 8 9 11 11 13 15 16 18 19 20 20 21
21 20 20 18 16 15 14 13 12 11 11 12 12 12 10 9 7 6 6 7 8 9 10 11 13 14 15 17 19 20 21 22 23
23 22 21 19 17 17 16 15 14 13 13 13 14 14 13 11 10 9 9 9 9 10 11 13 14 16 17 18 19 21 22 23 25
26 24 22 21 19 19 18 17 17 16 15 15 16 16 15 15 13 12 11 12 13 13 13 15 16 17 19 20 21 23 24 25 26
28 26 24 23 22 22 21 20 20 19 18 18 18 18 17 17 16 16 15 15 15 16 16 17 18 19 20 22 24 26 27 27 29
28 28 26 25 24 24 23 22 22 21 20 20 20 20 19 19 17 19 18 18 18 19 20 20 20 20 23 23 25 27 29 30 31
31 30 29 27 26 26 26 25 24 23 22 22 22 21 22 22 20 20 20 21 21 22 23 23 24 23 25 26 27 29 31 32 32
34 32 31 29 28 28 28 27 27 25 25 25 26 24 24 24 23 22 23 25 24 25 26 27 27 28 28 29 30 31 32 33 33
37 34 33 31 30 29 30 30 29 28 28 28 27 26 25 25 26 25 27 27 27 28 28 29 30 31 32 32 33 33 34 35 34
38 36 35 33 33 32 33 33 31 32 31 29 28 29 27 28 28 27 29 29 29 30 31 31 33 33 33 34 36 35 35 36 35
41 39 37 36 37 35 35 35 34 35 34 30 29 33 30 31 29 30 30 30 31 31 33 35 33 35 36 36 38 36 35 37 39
43 40 40 39 38 38 38 37 37 38 35 31 28 36 33 33 32 32 32 30 31 33 35 37 36 37 39 40 39 36 35 34 33
45 44 43 42 42 42 39 40 39 39 35 34 31 37 36 36 33 35 30 33 33 34 35 37 39 39 41 40 35 34 34 35 34
49 49 46 45 44 43 42 43 41 42 39 39 35 39 36 38 32 37 35 36 37 37 39 40 42 42 42 37 35 33 35 34 35
54 50 49 48 44 45 49 47 46 44 46 51 44 38 39 37 36 38 40 40 37 36 34 36 37 37 33 34 34 34 35 36 37
57 58 56 51 49 48 43 49 51 48 52 53 39 40 43 39 37 39 40 34 36 37 36 35 32 34 34 35 34 34 36 37 37
57 52 57 56 53 54 50 50 49 46 49 48 43 34 35 36 35 38 41 39 36 38 39 38 31 30 27 25 27 30 33 35 40
59 57 52 38 33 41 37 46 50 48 45 42 34 31 35 35 40 37 39 43 43 38 39 32 22 22 24 28 31 36 40 44 49

GFSFLT1_500_spd_114.txt.gz
Wind_Speed
17 14 11 10 8 8 8 10 9 8 7 7 9 9 9 8 5 4 4 3 4 5 7 7 8 9 11 12 14 14 15 16 18
20 17 14 12 11 11 10 11 10 9 8 9 11 10 11 8 7 6 5 5 6 7 7 8 9 10 11 13 14 15 17 17 18
23 19 17 15 15 13 12 12 11 11 10 11 12 12 12 10 9 8 7 7 7 8 9 10 11 12 13 14 15 17 18 19 20
24 22 20 19 18 16 15 14 13 12 12 12 14 15 14 13 12 10 9 9 9 10 10 11 12 14 15 16 18 18 20 21 23
24 24 22 20 20 18 17 16 15 15 14 15 15 17 16 15 14 13 12 11 11 11 12 12 14 16 16 18 19 20 21 23 24
28 26 24 23 22 21 20 18 18 18 17 17 17 18 18 17 16 16 15 14 14 14 14 14 16 18 19 20 21 22 22 24 26
29 28 26 25 25 23 23 21 20 20 20 19 19 19 20 18 19 18 18 17 17 17 17 17 18 20 22 23 25 25 25 26 28
31 30 28 28 27 26 25 24 22 22 21 22 21 21 21 21 21 20 21 20 20 20 20 20 21 23 24 25 27 29 29 29 30
33 32 31 29 29 28 27 26 25 24 24 24 24 23 24 24 23 22 23 23 22 23 24 24 23 24 26 28 29 30 31 32 34
37 35 33 33 31 30 29 29 28 26 26 26 27 27 26 25 25 25 25 25 26 26 26 28 28 27 27 30 32 32 33 33 35
42 38 36 34 34 33 31 31 29 28 29 28 30 29 28 28 27 27 27 27 28 28 28 29 31 32 31 33 34 35 35 36 40
45 41 38 36 36 35 34 33 32 32 32 32 32 32 30 29 28 29 30 30 29 29 29 30 31 34 36 36 36 36 37 39 39
50 45 41 40 38 38 36 35 35 35 35 34 34 34 32 31 29 29 32 33 31 30 30 30 33 35 37 37 37 38 40 42 35
53 48 45 44 41 41 38 38 38 39 37 36 36 36 35 34 30 31 34 33 34 32 30 33 37 39 40 40 40 40 40 40 35
56 52 48 46 45 43 41 42 43 41 39 38 39 38 37 38 38 36 36 33 36 33 33 37 41 41 43 44 43 41 41 35 34
58 54 49 50 48 45 46 46 43 42 41 40 41 40 41 42 46 40 41 38 37 35 36 39 43 39 36 36 36 35 33 35 38
57 57 54 53 48 49 49 47 46 45 44 44 45 45 48 50 55 46 41 41 38 38 39 40 38 37 35 36 34 33 33 33 33
63 59 56 54 55 51 53 53 47 51 46 48 49 51 51 52 56 50 46 43 41 41 39 35 38 37 38 36 35 35 31 28 29
68 62 61 59 58 55 55 51 53 43 32 41 48 55 56 48 49 39 39 42 41 38 39 40 41 41 38 33 28 26 26 28 31
64 64 64 61 59 58 56 35 37 34 36 43 34 32 39 45 43 39 37 37 38 39 39 39 40 42 39 38 31 30 33 32 33

GFSFLT1_500_spd_117.txt.gz
Wind_Speed
18 17 13 11 9 8 6 5 5 8 9 8 9 11 11 11 8 7 6 6 6 7 9 9 10 11 12 14 14 15 16 16 16
20 19 18 15 12 10 9 7 6 8 10 9 9 12 12 11 9 9 8 8 8 8 8 9 10 11 13 15 16 17 17 17 17
23 21 20 19 17 14 13 10 9 9 11 11 11 13 14 13 12 10 10 10 10 11 10 9 10 12 14 16 17 17 19 20 21
25 22 21 22 20 18 16 15 12 11 12 12 13 14 15 15 14 13 12 12 12 12 12 12 12 14 17 18 18 20 21 22 23
28 24 23 23 24 22 20 18 16 14 14 14 14 15 16 16 16 15 15 14 14 15 14 15 15 17 19 20 21 22 23 25 25
33 30 26 26 26 25 23 21 19 17 16 16 17 16 17 18 19 18 18 17 17 17 16 17 18 19 21 23 24 25 26 27 28
38 35 30 29 29 28 26 24 22 20 19 19 19 19 19 20 20 21 21 20 20 20 19 19 20 22 23 25 27 28 30 30 32
41 39 32 31 32 30 29 27 24 23 22 21 21 22 21 21 23 23 23 23 23 22 23 22 23 25 25 27 29 30 31 33 34
44 42 36 34 34 33 30 29 27 26 25 24 23 23 24 24 25 25 26 25 26 24 25 26 25 26 28 29 30 32 34 36 36
46 45 42 39 37 35 33 31 30 28 27 26 26 26 26 26 27 28 28 27 28 27 28 28 27 27 29 30 30 33 36 37 37
47 46 43 41 40 37 36 34 32 31 30 29 29 28 29 29 30 30 30 28 29 29 30 32 30 30 30 29 32 35 36 36 38
48 49 47 45 44 40 40 37 35 33 33 32 32 32 31 31 32 32 31 30 29 32 32 33 34 33 32 32 35 37 37 37 39
50 50 51 52 48 45 42 39 37 36 35 35 35 34 32 33 34 33 32 32 30 31 34 36 35 35 35 36 38 39 40 40 40
51 60 55 55 52 48 45 43 40 39 39 39 37 37 35 35 36 36 34 34 33 41 38 40 39 39 38 39 40 42 40 37 34
62 53 57 56 53 51 48 44 44 44 42 41 40 39 37 36 38 38 38 40 42 45 41 44 43 42 41 42 41 40 34 34 36
56 52 63 61 57 52 50 49 49 47 45 44 43 41 38 36 40 41 42 43 48 46 53 50 49 44 44 44 43 38 33 35 35
58 73 62 60 60 58 57 52 51 50 48 47 46 44 42 48 46 45 46 49 51 54 52 50 49 47 46 45 39 39 37 34 35
63 66 57 66 62 63 60 57 55 55 53 50 50 50 47 50 49 47 51 53 54 60 54 52 51 48 47 43 40 41 37 34 36
56 67 76 68 66 66 65 61 58 57 55 56 55 53 57 58 51 50 54 57 53 53 51 47 49 47 45 42 42 39 35 36 36
57 59 64 73 71 67 69 64 58 61 59 52 50 47 44 40 37 33 35 39 46 45 43 43 42 41 41 36 36 37 36 34 32